FW6030 Weather Reports


Display with metric or nautical units.
time (UTC)temp
F
wind
direction
speed
MPH
gust
MPH
rain 1hr
in
rain 24hr
in
rain mn
in
humidity
%
barometer
mb
20210515174617 77 155 11.0 18.0 0.00 0.00 0.00 72 1019.6
20210515174516 77 179 10.0 18.0 0.00 0.00 0.00 72 1019.6
20210515174421 77 150 9.0 18.0 0.00 0.00 0.00 72 1019.6
20210515174320 77 166 9.0 18.0 0.00 0.00 0.00 72 1019.6
20210515174220 77 192 10.0 20.0 0.00 0.00 0.00 72 1019.5
20210515174019 77 165 12.0 20.0 0.00 0.00 0.00 72 1019.6
20210515173919 77 117 12.0 20.0 0.00 0.00 0.00 72 1019.7
20210515173818 77 157 12.0 20.0 0.00 0.00 0.00 72 1019.6
20210515173722 77 146 11.0 19.0 0.00 0.00 0.00 72 1019.6
20210515173621 77 157 10.0 19.0 0.00 0.00 0.00 72 1019.6
20210515173522 77 158 11.0 19.0 0.00 0.00 0.00 72 1019.7
20210515173421 77 167 12.0 19.0 0.00 0.00 0.00 72 1019.6
20210515173321 77 163 12.0 19.0 0.00 0.00 0.00 72 1019.7
20210515173221 77 157 12.0 19.0 0.00 0.00 0.00 72 1019.7
20210515173125 77 143 11.0 23.0 0.00 0.00 0.00 73 1019.7
20210515173024 76 138 12.0 23.0 0.00 0.00 0.00 72 1019.7
20210515172923 76 163 12.0 23.0 0.00 0.00 0.00 72 1019.7
20210515172824 76 148 12.0 23.0 0.00 0.00 0.00 72 1019.8
20210515172723 76 165 12.0 23.0 0.00 0.00 0.00 71 1019.7
20210515172623 76 169 11.0 23.0 0.00 0.00 0.00 73 1019.7
20210515172522 76 158 12.0 23.0 0.00 0.00 0.00 72 1019.8
20210515172426 76 181 13.0 23.0 0.00 0.00 0.00 72 1019.9
20210515172326 76 153 13.0 23.0 0.00 0.00 0.00 72 1019.9
20210515172225 76 194 13.0 23.0 0.00 0.00 0.00 71 1019.8
20210515172126 76 163 14.0 23.0 0.00 0.00 0.00 72 1019.8
20210515172024 76 157 14.0 23.0 0.00 0.00 0.00 72 1019.8
20210515171924 76 169 14.0 23.0 0.00 0.00 0.00 72 1019.9
20210515171828 76 161 14.0 23.0 0.00 0.00 0.00 72 1019.8
20210515171727 76 155 14.0 23.0 0.00 0.00 0.00 72 1019.7
20210515171628 76 148 13.0 21.0 0.00 0.00 0.00 72 1019.8
20210515171528 76 202 14.0 21.0 0.00 0.00 0.00 72 1019.8
20210515171427 76 163 13.0 21.0 0.00 0.00 0.00 72 1019.8
20210515171327 76 205 12.0 21.0 0.00 0.00 0.00 72 1019.8
20210515171227 76 169 10.0 19.0 0.00 0.00 0.00 72 1019.9
20210515171029 76 151 11.0 19.0 0.00 0.00 0.00 73 1019.8
20210515170929 76 167 12.0 19.0 0.00 0.00 0.00 73 1019.8
20210515170828 76 179 12.0 19.0 0.00 0.00 0.00 73 1019.9
20210515170728 76 169 13.0 20.0 0.00 0.00 0.00 73 1019.9
20210515170628 76 156 13.0 20.0 0.00 0.00 0.00 74 1019.9
20210515170532 76 172 12.0 20.0 0.00 0.00 0.00 74 1019.9
20210515170431 76 161 12.0 19.0 0.00 0.00 0.00 74 1019.9
20210515170331 76 169 11.0 19.0 0.00 0.00 0.00 74 1019.9
20210515170230 76 165 9.0 16.0 0.00 0.00 0.00 75 1020.0
20210515170131 76 168 8.0 16.0 0.00 0.00 0.00 75 1020.0
20210515170031 76 157 9.0 19.0 0.00 0.00 0.00 75 1020.1
20210515165930 75 184 9.0 20.0 0.00 0.00 0.00 75 1020.2
20210515165833 75 155 9.0 20.0 0.00 0.00 0.00 75 1020.2
20210515165733 75 163 9.0 20.0 0.00 0.00 0.00 75 1020.1
20210515165633 75 142 9.0 20.0 0.00 0.00 0.00 76 1020.2
20210515165532 75 161 10.0 20.0 0.00 0.00 0.00 75 1020.2
20210515165433 75 156 12.0 20.0 0.00 0.00 0.00 75 1020.2
20210515165332 75 175 12.0 20.0 0.00 0.00 0.00 75 1020.2
20210515165236 75 193 12.0 20.0 0.00 0.00 0.00 75 1020.2
20210515165136 75 161 12.0 20.0 0.00 0.00 0.00 75 1020.2
20210515165036 75 136 10.0 17.0 0.00 0.00 0.00 75 1020.2
20210515164935 75 177 9.0 17.0 0.00 0.00 0.00 75 1020.2
20210515164835 75 168 8.0 17.0 0.00 0.00 0.00 74 1020.3
20210515164735 75 142 7.0 16.0 0.00 0.00 0.00 76 1020.2
20210515164618 75 153 7.0 16.0 0.00 0.00 0.00 75 1020.2
20210515164518 75 175 8.0 18.0 0.00 0.00 0.00 76 1020.2
20210515164417 75 188 9.0 18.0 0.00 0.00 0.00 75 1020.2
20210515164318 75 137 10.0 18.0 0.00 0.00 0.00 75 1020.3
20210515164218 75 204 11.0 18.0 0.00 0.00 0.00 75 1020.2
20210515164119 75 208 12.0 18.0 0.00 0.00 0.00 75 1020.2
20210515164019 75 180 13.0 18.0 0.00 0.00 0.00 75 1020.3
20210515163924 75 165 13.0 18.0 0.00 0.00 0.00 75 1020.2
20210515163824 75 178 14.0 18.0 0.00 0.00 0.00 74 1020.2
20210515163724 75 154 13.0 18.0 0.00 0.00 0.00 74 1020.3
20210515163624 75 159 12.0 16.0 0.00 0.00 0.00 74 1020.2
20210515163524 75 161 11.0 20.0 0.00 0.00 0.00 74 1020.2
20210515163423 75 159 10.0 20.0 0.00 0.00 0.00 75 1020.2
20210515163327 76 164 10.0 22.0 0.00 0.00 0.00 75 1020.2
20210515163226 75 165 9.0 22.0 0.00 0.00 0.00 74 1020.1
20210515163126 76 204 10.0 22.0 0.00 0.00 0.00 74 1020.2
20210515163026 76 140 11.0 22.0 0.00 0.00 0.00 74 1020.2
20210515162926 76 194 12.0 22.0 0.00 0.00 0.00 74 1020.3
20210515162825 76 163 13.0 22.0 0.00 0.00 0.00 74 1020.3
20210515162725 76 136 14.0 22.0 0.00 0.00 0.00 75 1020.3
20210515162629 75 165 14.0 22.0 0.00 0.00 0.00 75 1020.3
20210515162528 75 177 13.0 22.0 0.00 0.00 0.00 75 1020.4
20210515162429 75 157 13.0 23.0 0.00 0.00 0.00 75 1020.3
20210515162328 75 147 12.0 23.0 0.00 0.00 0.00 76 1020.3
20210515162228 75 148 11.0 23.0 0.00 0.00 0.00 76 1020.4
20210515162127 75 153 10.0 23.0 0.00 0.00 0.00 76 1020.4
20210515162031 75 153 10.0 23.0 0.00 0.00 0.00 77 1020.5
20210515161931 75 167 11.0 23.0 0.00 0.00 0.00 77 1020.5
20210515161830 75 163 11.0 23.0 0.00 0.00 0.00 77 1020.5
20210515161730 74 159 12.0 23.0 0.00 0.00 0.00 77 1020.5
20210515161629 74 158 12.0 23.0 0.00 0.00 0.00 77 1020.5
20210515161530 74 168 13.0 21.0 0.00 0.00 0.00 77 1020.6
20210515161429 74 164 14.0 21.0 0.00 0.00 0.00 77 1020.6
20210515161333 74 156 14.0 21.0 0.00 0.00 0.00 76 1020.6
20210515161233 74 156 14.0 21.0 0.00 0.00 0.00 76 1020.7
20210515161132 74 171 13.0 21.0 0.00 0.00 0.00 77 1020.7
20210515161030 74 166 13.0 21.0 0.00 0.00 0.00 76 1020.6
20210515160930 74 178 13.0 21.0 0.00 0.00 0.00 77 1020.7
20210515160829 75 155 13.0 19.0 0.00 0.00 0.00 77 1020.6
20210515160733 75 159 13.0 19.0 0.00 0.00 0.00 77 1020.6
20210515160633 75 158 12.0 19.0 0.00 0.00 0.00 77 1020.6
20210515160533 75 147 12.0 18.0 0.00 0.00 0.00 77 1020.7
20210515160434 75 141 12.0 18.0 0.00 0.00 0.00 77 1020.6
20210515160334 74 155 13.0 20.0 0.00 0.00 0.00 77 1020.6
20210515160234 74 162 13.0 23.0 0.00 0.00 0.00 78 1020.7
20210515160118 74 146 12.0 23.0 0.00 0.00 0.00 78 1020.7
20210515160018 74 153 10.0 23.0 0.00 0.00 0.00 78 1020.6
20210515155917 74 165 10.0 23.0 0.00 0.00 0.00 79 1020.6
20210515155818 74 178 10.0 23.0 0.00 0.00 0.00 79 1020.7
20210515155717 74 217 11.0 23.0 0.00 0.00 0.00 79 1020.6
20210515155616 74 207 11.0 23.0 0.00 0.00 0.00 79 1020.6
20210515155517 74 196 12.0 23.0 0.00 0.00 0.00 80 1020.6
20210515155422 74 152 12.0 23.0 0.00 0.00 0.00 80 1020.7
20210515155321 74 143 11.0 18.0 0.00 0.00 0.00 80 1020.7
20210515155220 74 138 11.0 20.0 0.00 0.00 0.00 80 1020.6
20210515155120 74 182 11.0 20.0 0.00 0.00 0.00 80 1020.6
20210515155019 74 186 11.0 20.0 0.00 0.00 0.00 81 1020.6
20210515154919 73 150 11.0 20.0 0.00 0.00 0.00 81 1020.6
20210515154822 73 163 11.0 20.0 0.00 0.00 0.00 81 1020.6
20210515154721 73 151 12.0 20.0 0.00 0.00 0.00 82 1020.6
20210515154621 73 187 13.0 20.0 0.00 0.00 0.00 82 1020.5
20210515154521 73 177 13.0 20.0 0.00 0.00 0.00 82 1020.5
20210515154420 73 188 14.0 20.0 0.00 0.00 0.00 82 1020.6
20210515154320 73 160 14.0 21.0 0.00 0.00 0.00 82 1020.6
20210515154221 73 167 12.0 20.0 0.00 0.00 0.00 83 1020.6
20210515154124 72 194 10.0 15.0 0.00 0.00 0.00 84 1020.5
20210515154024 72 166 10.0 21.0 0.00 0.00 0.00 85 1020.6
20210515153924 72 173 8.0 25.0 0.00 0.00 0.00 85 1020.6
20210515153824 72 173 8.0 25.0 0.00 0.00 0.00 85 1020.6
20210515153724 72 175 9.0 25.0 0.00 0.00 0.00 85 1020.7
20210515153623 72 156 11.0 25.0 0.00 0.00 0.00 85 1020.6
20210515153527 72 213 14.0 25.0 0.00 0.00 0.00 85 1020.6
20210515153427 72 161 15.0 25.0 0.00 0.00 0.00 85 1020.6
20210515153327 71 170 15.0 25.0 0.00 0.00 0.00 85 1020.6
20210515153226 71 164 14.0 25.0 0.00 0.00 0.00 85 1020.6
20210515153126 71 180 14.0 29.0 0.00 0.00 0.00 85 1020.6
20210515153025 71 190 12.0 21.0 0.00 0.00 0.00 86 1020.5
20210515152925 71 157 12.0 21.0 0.00 0.00 0.00 86 1020.6
20210515152828 71 144 12.0 21.0 0.00 0.00 0.00 86 1020.6
20210515152727 71 145 11.0 21.0 0.00 0.00 0.00 86 1020.6
20210515152627 71 167 11.0 23.0 0.00 0.00 0.00 86 1020.7
20210515152526 71 161 11.0 23.0 0.00 0.00 0.00 86 1020.7
20210515152427 71 150 11.0 23.0 0.00 0.00 0.00 87 1020.7
20210515152326 71 167 11.0 23.0 0.00 0.00 0.00 87 1020.7
20210515152230 71 150 12.0 23.0 0.00 0.00 0.00 87 1020.7
20210515152129 70 138 12.0 23.0 0.00 0.00 0.00 87 1020.8
20210515152029 70 160 12.0 23.0 0.00 0.00 0.00 88 1020.8
20210515151928 70 144 11.0 23.0 0.00 0.00 0.00 87 1020.7
20210515151828 70 165 10.0 23.0 0.00 0.00 0.00 87 1020.8
20210515151727 70 169 9.0 17.0 0.00 0.00 0.00 88 1020.8
20210515151626 70 143 9.0 17.0 0.00 0.00 0.00 88 1020.8
20210515151527 70 142 8.0 17.0 0.00 0.00 0.00 88 1020.8
20210515151426 70 140 10.0 17.0 0.00 0.00 0.00 88 1020.8
20210515151326 70 161 10.0 17.0 0.00 0.00 0.00 88 1020.8
20210515151226 70 159 10.0 19.0 0.00 0.00 0.00 88 1020.8
20210515151126 70 154 11.0 19.0 0.00 0.00 0.00 89 1020.8
20210515151025 70 166 11.0 19.0 0.00 0.00 0.00 89 1020.8
20210515150929 70 146 11.0 19.0 0.00 0.00 0.00 89 1020.8
20210515150829 70 167 11.0 19.0 0.00 0.00 0.00 89 1020.8
20210515150729 70 132 11.0 19.0 0.00 0.00 0.00 89 1020.7
20210515150630 69 164 12.0 19.0 0.00 0.00 0.00 89 1020.7
20210515150529 69 155 12.0 19.0 0.00 0.00 0.00 89 1020.7
20210515150429 69 177 13.0 19.0 0.00 0.00 0.00 89 1020.7
20210515150329 69 142 13.0 19.0 0.00 0.00 0.00 89 1020.7
20210515150233 69 141 12.0 18.0 0.00 0.00 0.00 89 1020.7
20210515150133 69 170 12.0 17.0 0.00 0.00 0.00 90 1020.7
20210515150032 69 155 11.0 15.0 0.00 0.00 0.00 90 1020.7
20210515145932 69 157 10.0 13.0 0.00 0.00 0.00 90 1020.7
20210515145831 69 175 10.0 14.0 0.00 0.00 0.00 90 1020.6
20210515145731 69 122 9.0 15.0 0.00 0.00 0.00 90 1020.7
20210515145635 69 153 9.0 14.0 0.00 0.00 0.00 90 1020.6
20210515145535 69 169 8.0 11.0 0.00 0.00 0.00 90 1020.7
20210515145435 68 158 8.0 11.0 0.00 0.00 0.00 90 1020.7
20210515145334 69 143 7.0 11.0 0.00 0.00 0.00 90 1020.7
20210515145234 68 154 7.0 11.0 0.00 0.00 0.00 90 1020.7
20210515145134 68 117 6.0 11.0 0.00 0.00 0.00 90 1020.7
20210515145018 68 146 6.0 12.0 0.00 0.00 0.00 90 1020.8
20210515144918 68 106 7.0 12.0 0.00 0.00 0.00 90 1020.8
20210515144818 68 154 7.0 12.0 0.00 0.00 0.00 91 1020.8
20210515144719 68 152 6.0 12.0 0.00 0.00 0.00 91 1020.9
20210515144618 68 163 6.0 12.0 0.00 0.00 0.00 91 1020.9
20210515144518 68 157 6.0 12.0 0.00 0.00 0.00 91 1020.9
20210515144417 68 162 7.0 12.0 0.00 0.00 0.00 91 1020.9
20210515144321 68 152 8.0 12.0 0.00 0.00 0.00 91 1021.0
20210515144222 68 167 8.0 12.0 0.00 0.00 0.00 91 1021.0
20210515144122 68 161 8.0 12.0 0.00 0.00 0.00 91 1021.0
20210515144021 68 155 8.0 12.0 0.00 0.00 0.00 91 1021.0
20210515143921 68 154 8.0 12.0 0.00 0.00 0.00 91 1021.0
20210515143819 68 159 8.0 15.0 0.00 0.00 0.00 91 1021.0
20210515143723 68 163 7.0 15.0 0.00 0.00 0.00 91 1021.1
20210515143623 68 148 7.0 15.0 0.00 0.00 0.00 91 1021.0
20210515143522 68 176 6.0 15.0 0.00 0.00 0.00 91 1021.1
20210515143422 68 161 6.0 15.0 0.00 0.00 0.00 91 1021.1
20210515143322 68 179 7.0 15.0 0.00 0.00 0.00 91 1021.0
20210515143221 68 155 8.0 15.0 0.00 0.00 0.00 91 1021.0
20210515143121 68 176 9.0 15.0 0.00 0.00 0.00 91 1021.0
20210515143025 68 167 9.0 15.0 0.00 0.00 0.00 91 1021.0
20210515142925 68 163 8.0 14.0 0.00 0.00 0.00 91 1021.0
20210515142824 67 163 8.0 14.0 0.00 0.00 0.00 91 1021.0
20210515142725 67 146 6.0 12.0 0.00 0.00 0.00 91 1020.9
20210515142625 67 122 6.0 10.0 0.00 0.00 0.00 91 1021.0
20210515142525 67 164 5.0 10.0 0.00 0.00 0.00 91 1021.0
20210515142429 67 190 6.0 10.0 0.00 0.00 0.00 91 1021.0
20210515142328 67 174 7.0 11.0 0.00 0.00 0.00 91 1021.0
20210515142228 67 163 7.0 11.0 0.00 0.00 0.00 91 1021.0
20210515142129 67 196 7.0 11.0 0.00 0.00 0.00 91 1021.0
20210515142030 67 164 7.0 11.0 0.00 0.00 0.00 91 1021.0
20210515141928 67 158 7.0 11.0 0.00 0.00 0.00 91 1020.8
20210515141828 67 153 7.0 11.0 0.00 0.00 0.00 91 1020.9
20210515141733 67 165 6.0 11.0 0.00 0.00 0.00 91 1020.9
20210515141632 67 157 5.0 12.0 0.00 0.00 0.00 92 1020.8
20210515141532 67 137 6.0 12.0 0.00 0.00 0.00 92 1021.0
20210515141431 67 149 6.0 12.0 0.00 0.00 0.00 92 1021.0
20210515141331 67 167 6.0 12.0 0.00 0.00 0.00 91 1020.9
20210515141230 67 171 6.0 12.0 0.00 0.00 0.00 92 1020.9
20210515141134 67 146 6.0 12.0 0.00 0.00 0.00 92 1020.9
20210515141036 67 163 6.0 12.0 0.00 0.00 0.00 92 1020.8
20210515140935 67 161 6.0 12.0 0.00 0.00 0.00 92 1020.8
20210515140835 67 161 6.0 12.0 0.00 0.00 0.00 92 1020.9
20210515140735 67 145 7.0 15.0 0.00 0.00 0.00 91 1020.9
20210515140635 67 146 6.0 15.0 0.00 0.00 0.00 91 1020.8
20210515140519 67 179 6.0 15.0 0.00 0.00 0.00 91 1020.8
20210515140419 67 167 7.0 17.0 0.00 0.00 0.00 91 1020.8
20210515140318 67 159 8.0 17.0 0.00 0.00 0.00 91 1020.8
20210515140218 67 163 9.0 17.0 0.00 0.00 0.00 91 1020.7
20210515140118 67 159 10.0 17.0 0.00 0.00 0.00 91 1020.8
20210515140018 67 159 9.0 17.0 0.00 0.00 0.00 91 1020.8
20210515135919 67 153 9.0 17.0 0.00 0.00 0.00 91 1020.8
20210515135823 67 152 10.0 17.0 0.00 0.00 0.00 91 1020.8
20210515135723 67 150 11.0 17.0 0.00 0.00 0.00 91 1020.8
20210515135622 67 171 12.0 17.0 0.00 0.00 0.00 91 1020.8
20210515135521 67 160 12.0 17.0 0.00 0.00 0.00 91 1020.8
20210515135423 67 157 11.0 17.0 0.00 0.00 0.00 91 1020.7
20210515135322 67 161 10.0 15.0 0.00 0.00 0.00 91 1020.8
20210515135225 67 156 9.0 13.0 0.00 0.00 0.00 91 1020.8
20210515135125 67 149 8.0 13.0 0.00 0.00 0.00 91 1020.8
20210515135025 67 141 8.0 12.0 0.00 0.00 0.00 91 1020.8
20210515134925 67 164 8.0 12.0 0.00 0.00 0.00 91 1020.8
20210515134824 67 167 7.0 11.0 0.00 0.00 0.00 91 1020.8
20210515134725 67 163 7.0 14.0 0.00 0.00 0.00 91 1020.7
20210515134625 67 157 7.0 14.0 0.00 0.00 0.00 91 1020.7
20210515134528 67 167 8.0 14.0 0.00 0.00 0.00 91 1020.7
20210515134428 67 142 8.0 14.0 0.00 0.00 0.00 91 1020.7
20210515134328 67 133 8.0 14.0 0.00 0.00 0.00 91 1020.7
20210515134227 67 156 10.0 14.0 0.00 0.00 0.00 91 1020.7
20210515134127 67 155 10.0 14.0 0.00 0.00 0.00 91 1020.7
20210515134026 67 171 10.0 16.0 0.00 0.00 0.00 91 1020.6
20210515133929 67 170 10.0 16.0 0.00 0.00 0.00 91 1020.6
20210515133829 67 157 9.0 16.0 0.00 0.00 0.00 91 1020.6
20210515133730 67 155 8.0 16.0 0.00 0.00 0.00 91 1020.6
20210515133630 67 141 9.0 16.0 0.00 0.00 0.00 91 1020.6
20210515133529 67 144 9.0 16.0 0.00 0.00 0.00 91 1020.6
20210515133429 67 160 9.0 16.0 0.00 0.00 0.00 91 1020.6
20210515133329 67 151 10.0 16.0 0.00 0.00 0.00 91 1020.5
20210515133233 67 138 10.0 16.0 0.00 0.00 0.00 91 1020.5
20210515133132 67 163 10.0 15.0 0.00 0.00 0.00 91 1020.6
20210515133032 67 147 9.0 14.0 0.00 0.00 0.00 91 1020.6
20210515132930 67 138 8.0 14.0 0.00 0.00 0.00 91 1020.6
20210515132830 67 126 8.0 14.0 0.00 0.00 0.00 91 1020.5
20210515132732 67 127 8.0 12.0 0.00 0.00 0.00 91 1020.6
20210515132636 67 141 8.0 12.0 0.00 0.00 0.00 91 1020.5
20210515132536 67 130 8.0 12.0 0.00 0.00 0.00 91 1020.5
20210515132437 67 154 8.0 11.0 0.00 0.00 0.00 91 1020.5
20210515132335 67 173 8.0 14.0 0.00 0.00 0.00 91 1020.6
20210515132235 67 163 6.0 14.0 0.00 0.00 0.00 91 1020.6
20210515132134 67 123 7.0 14.0 0.00 0.00 0.00 91 1020.5
20210515132017 67 138 7.0 14.0 0.00 0.00 0.00 91 1020.5
20210515131917 67 157 7.0 14.0 0.00 0.00 0.00 91 1020.5
20210515131818 67 140 8.0 14.0 0.00 0.00 0.00 91 1020.5
20210515131718 67 136 8.0 14.0 0.00 0.00 0.00 90 1020.4
20210515131617 67 171 8.0 14.0 0.00 0.00 0.00 90 1020.5
20210515131517 67 144 9.0 14.0 0.00 0.00 0.00 90 1020.4
20210515131417 67 158 9.0 14.0 0.00 0.00 0.00 91 1020.5
20210515131321 67 150 9.0 14.0 0.00 0.00 0.00 91 1020.5
20210515131220 67 146 9.0 14.0 0.00 0.00 0.00 91 1020.5
20210515131120 67 80 8.0 14.0 0.00 0.00 0.00 91 1020.5
20210515131020 67 147 8.0 14.0 0.00 0.00 0.00 91 1020.6
20210515130919 68 152 7.0 14.0 0.00 0.00 0.00 91 1020.6
20210515130819 68 149 7.0 14.0 0.00 0.00 0.00 91 1020.6
20210515130723 67 153 8.0 14.0 0.00 0.00 0.00 91 1020.6
20210515130623 67 166 8.0 14.0 0.00 0.00 0.00 91 1020.6
20210515130521 67 146 8.0 14.0 0.00 0.00 0.00 91 1020.7
20210515130418 67 169 8.0 14.0 0.00 0.00 0.00 91 1020.7
20210515130318 67 167 9.0 14.0 0.00 0.00 0.00 91 1020.7
20210515130218 67 161 8.0 15.0 0.00 0.00 0.00 91 1020.7
20210515130117 67 154 8.0 15.0 0.00 0.00 0.00 91 1020.7
20210515130021 67 135 7.0 15.0 0.00 0.00 0.00 91 1020.7
20210515125921 67 157 7.0 15.0 0.00 0.00 0.00 91 1020.7
20210515125821 67 165 7.0 15.0 0.00 0.00 0.00 91 1020.7
20210515125720 67 126 7.0 15.0 0.00 0.00 0.00 91 1020.7
20210515125620 67 128 7.0 12.0 0.00 0.00 0.00 91 1020.7
20210515125519 67 115 7.0 12.0 0.00 0.00 0.00 91 1020.8
20210515125424 67 144 8.0 12.0 0.00 0.00 0.00 91 1020.7
20210515125322 67 162 7.0 12.0 0.00 0.00 0.00 91 1020.8
20210515125222 67 154 7.0 17.0 0.00 0.00 0.00 91 1020.8
20210515125122 67 163 8.0 17.0 0.00 0.00 0.00 91 1020.7
20210515125021 67 150 8.0 17.0 0.00 0.00 0.00 91 1020.8
20210515124921 67 157 8.0 17.0 0.00 0.00 0.00 91 1020.8
20210515124821 67 144 9.0 17.0 0.00 0.00 0.00 91 1020.7
20210515124725 67 151 10.0 17.0 0.00 0.00 0.00 91 1020.8
20210515124625 67 134 9.0 17.0 0.00 0.00 0.00 91 1020.8
20210515124525 67 142 9.0 17.0 0.00 0.00 0.00 91 1020.8
20210515124424 67 161 8.0 17.0 0.00 0.00 0.00 91 1020.7
20210515124323 67 157 6.0 12.0 0.00 0.00 0.00 91 1020.8
20210515124222 67 153 6.0 14.0 0.00 0.00 0.00 91 1020.8
20210515124126 67 161 5.0 14.0 0.00 0.00 0.00 91 1020.8
20210515124026 67 161 5.0 14.0 0.00 0.00 0.00 91 1020.7
20210515123924 67 126 5.0 14.0 0.00 0.00 0.00 91 1020.8
20210515123824 67 172 5.0 14.0 0.00 0.00 0.00 91 1020.8
20210515123724 67 169 6.0 14.0 0.00 0.00 0.00 91 1020.8
20210515123624 67 159 7.0 14.0 0.00 0.00 0.00 91 1020.8
20210515123524 67 171 8.0 14.0 0.00 0.00 0.00 91 1020.8
20210515123427 67 155 7.0 14.0 0.00 0.00 0.00 91 1020.8
20210515123327 67 169 7.0 12.0 0.00 0.00 0.00 91 1020.8
20210515123227 67 137 7.0 12.0 0.00 0.00 0.00 91 1020.8
20210515123126 67 161 7.0 12.0 0.00 0.00 0.00 91 1020.8
20210515123026 67 163 7.0 12.0 0.00 0.00 0.00 91 1020.8
20210515122926 67 161 8.0 12.0 0.00 0.00 0.00 91 1020.9
20210515122829 67 142 8.0 12.0 0.00 0.00 0.00 91 1020.8
20210515122729 67 175 7.0 12.0 0.00 0.00 0.00 91 1020.8
20210515122628 67 174 7.0 12.0 0.00 0.00 0.00 91 1020.7
20210515122528 67 159 6.0 12.0 0.00 0.00 0.00 91 1020.7
20210515122429 67 134 6.0 11.0 0.00 0.00 0.00 91 1020.8
20210515122328 67 158 6.0 10.0 0.00 0.00 0.00 91 1020.8
20210515122228 67 157 6.0 10.0 0.00 0.00 0.00 91 1020.7
20210515122131 67 192 7.0 10.0 0.00 0.00 0.00 91 1020.7
20210515122030 67 171 6.0 10.0 0.00 0.00 0.00 91 1020.7
20210515121930 67 155 6.0 10.0 0.00 0.00 0.00 91 1020.6
20210515121830 67 157 5.0 10.0 0.00 0.00 0.00 91 1020.6
20210515121730 67 160 5.0 10.0 0.00 0.00 0.00 91 1020.6
20210515121630 67 159 6.0 10.0 0.00 0.00 0.00 91 1020.6
20210515121533 67 164 6.0 10.0 0.00 0.00 0.00 91 1020.6
20210515121433 67 167 6.0 10.0 0.00 0.00 0.00 91 1020.6
20210515121333 67 178 7.0 11.0 0.00 0.00 0.00 91 1020.6
20210515121232 67 176 7.0 11.0 0.00 0.00 0.00 91 1020.5
20210515121132 67 152 8.0 11.0 0.00 0.00 0.00 91 1020.5
20210515121032 67 160 7.0 11.0 0.00 0.00 0.00 91 1020.5
20210515120931 67 155 8.0 11.0 0.00 0.00 0.00 91 1020.4
20210515120834 67 161 8.0 13.0 0.00 0.00 0.00 91 1020.4
20210515120734 67 162 8.0 13.0 0.00 0.00 0.00 91 1020.4
20210515120634 67 171 8.0 13.0 0.00 0.00 0.00 91 1020.4
20210515120533 67 171 8.0 13.0 0.00 0.00 0.00 91 1020.4
20210515120433 67 182 8.0 11.0 0.00 0.00 0.00 91 1020.3
20210515120333 67 169 7.0 10.0 0.00 0.00 0.00 91 1020.3
20210515120216 67 162 7.0 11.0 0.00 0.00 0.00 91 1020.3
20210515120116 67 159 7.0 10.0 0.00 0.00 0.00 91 1020.3
20210515120016 67 175 7.0 10.0 0.00 0.00 0.00 91 1020.4
20210515115916 67 175 8.0 10.0 0.00 0.00 0.00 91 1020.4
20210515115835 67 163 8.0 10.0 0.00 0.00 0.00 91 1020.3
20210515115735 67 158 8.0 10.0 0.00 0.00 0.00 91 1020.3
20210515115619 67 153 8.0 10.0 0.00 0.00 0.00 91 1020.3
20210515115518 67 173 8.0 11.0 0.00 0.00 0.00 91 1020.2
20210515115418 67 138 7.0 11.0 0.00 0.00 0.00 91 1020.3
20210515115317 67 163 6.0 11.0 0.00 0.00 0.00 91 1020.3
20210515115216 67 158 7.0 11.0 0.00 0.00 0.00 91 1020.3
20210515115116 67 162 7.0 11.0 0.00 0.00 0.00 91 1020.3
20210515115016 67 156 7.0 12.0 0.00 0.00 0.00 91 1020.3
20210515114920 67 161 7.0 12.0 0.00 0.00 0.00 91 1020.2
20210515114819 67 175 7.0 12.0 0.00 0.00 0.00 91 1020.2
20210515114716 67 171 7.0 12.0 0.00 0.00 0.00 91 1020.2
20210515114616 67 175 7.0 12.0 0.00 0.00 0.00 91 1020.2
20210515114516 67 153 7.0 12.0 0.00 0.00 0.00 91 1020.3
20210515114416 67 162 7.0 12.0 0.00 0.00 0.00 91 1020.3
20210515114317 67 175 8.0 12.0 0.00 0.00 0.00 91 1020.3
20210515114217 67 173 8.0 12.0 0.00 0.00 0.00 91 1020.2
20210515114117 67 182 8.0 12.0 0.00 0.00 0.00 90 1020.3
20210515114016 67 159 8.0 11.0 0.00 0.00 0.00 90 1020.2
20210515113916 67 157 8.0 12.0 0.00 0.00 0.00 91 1020.3
20210515113816 67 171 8.0 12.0 0.00 0.00 0.00 90 1020.3
20210515113715 67 163 8.0 12.0 0.00 0.00 0.00 90 1020.2
20210515113620 67 183 7.0 12.0 0.00 0.00 0.00 90 1020.2
20210515113520 67 171 7.0 12.0 0.00 0.00 0.00 90 1020.1
20210515113420 67 185 7.0 12.0 0.00 0.00 0.00 90 1020.2
20210515113320 67 165 7.0 11.0 0.00 0.00 0.00 90 1020.2
20210515113219 67 149 7.0 13.0 0.00 0.00 0.00 90 1020.2
20210515113119 67 183 8.0 13.0 0.00 0.00 0.00 90 1020.2
20210515113023 67 171 8.0 13.0 0.00 0.00 0.00 90 1020.2
20210515112922 67 178 8.0 13.0 0.00 0.00 0.00 90 1020.2
20210515112822 67 154 7.0 13.0 0.00 0.00 0.00 90 1020.2
20210515112723 67 177 7.0 13.0 0.00 0.00 0.00 90 1020.2
20210515112623 67 190 7.0 13.0 0.00 0.00 0.00 90 1020.2
20210515112523 67 155 8.0 13.0 0.00 0.00 0.00 90 1020.2
20210515112422 67 175 8.0 13.0 0.00 0.00 0.00 90 1020.2
20210515112324 67 153 7.0 13.0 0.00 0.00 0.00 90 1020.2
20210515112224 67 163 8.0 13.0 0.00 0.00 0.00 90 1020.2
20210515112124 67 144 8.0 13.0 0.00 0.00 0.00 90 1020.2
20210515112024 67 165 8.0 12.0 0.00 0.00 0.00 90 1020.2
20210515111924 67 174 8.0 12.0 0.00 0.00 0.00 90 1020.2
20210515111823 67 157 7.0 12.0 0.00 0.00 0.00 90 1020.2
20210515111727 67 182 7.0 14.0 0.00 0.00 0.00 90 1020.2
20210515111627 67 159 8.0 14.0 0.00 0.00 0.00 90 1020.2
20210515111524 67 147 8.0 14.0 0.00 0.00 0.00 90 1020.2
20210515111424 67 182 8.0 14.0 0.00 0.00 0.00 90 1020.2
20210515111323 67 164 8.0 15.0 0.00 0.00 0.00 90 1020.1
20210515111223 67 165 8.0 15.0 0.00 0.00 0.00 90 1020.1
20210515111123 67 180 8.0 15.0 0.00 0.00 0.00 90 1020.1
20210515111027 67 180 8.0 15.0 0.00 0.00 0.00 90 1020.1
20210515110927 67 178 8.0 15.0 0.00 0.00 0.00 90 1020.0
20210515110827 67 175 8.0 15.0 0.00 0.00 0.00 90 1020.1
20210515110727 67 182 8.0 15.0 0.00 0.00 0.00 90 1020.1
20210515110627 67 160 8.0 15.0 0.00 0.00 0.00 90 1020.1
20210515110526 67 169 7.0 15.0 0.00 0.00 0.00 90 1020.1
20210515110430 67 186 7.0 13.0 0.00 0.00 0.00 90 1020.1
20210515110329 67 162 7.0 13.0 0.00 0.00 0.00 90 1020.1
20210515110230 67 197 7.0 13.0 0.00 0.00 0.00 90 1020.0
20210515110129 67 190 6.0 13.0 0.00 0.00 0.00 90 1020.1
20210515110030 67 184 7.0 13.0 0.00 0.00 0.00 90 1020.1
20210515105931 67 184 7.0 13.0 0.00 0.00 0.00 90 1020.1
20210515105830 67 180 8.0 13.0 0.00 0.00 0.00 90 1020.1
20210515105734 67 159 8.0 14.0 0.00 0.00 0.00 90 1019.9
20210515105634 67 172 9.0 14.0 0.00 0.00 0.00 90 1019.9
20210515105533 67 163 9.0 14.0 0.00 0.00 0.00 90 1020.0
20210515105433 67 190 9.0 14.0 0.00 0.00 0.00 90 1019.9
20210515105332 67 153 9.0 14.0 0.00 0.00 0.00 90 1019.9
20210515105232 67 160 9.0 14.0 0.00 0.00 0.00 90 1019.9
20210515105116 67 158 10.0 14.0 0.00 0.00 0.00 90 1020.0
20210515105035 67 191 10.0 14.0 0.00 0.00 0.00 90 1020.0
20210515104935 67 170 10.0 14.0 0.00 0.00 0.00 90 1020.0
20210515104835 67 187 9.0 16.0 0.00 0.00 0.00 90 1019.9
20210515104735 67 167 8.0 16.0 0.00 0.00 0.00 90 1020.0
20210515104634 67 165 7.0 16.0 0.00 0.00 0.00 90 1020.0
20210515104517 67 155 8.0 16.0 0.00 0.00 0.00 90 1019.9
20210515104418 67 233 9.0 16.0 0.00 0.00 0.00 90 1020.0
20210515104316 67 186 10.0 16.0 0.00 0.00 0.00 90 1020.0
20210515104216 67 165 10.0 16.0 0.00 0.00 0.00 90 1019.9
20210515104136 67 158 10.0 16.0 0.00 0.00 0.00 90 1019.9
20210515104035 67 171 9.0 15.0 0.00 0.00 0.00 90 1019.9
20210515103935 67 152 9.0 14.0 0.00 0.00 0.00 90 1019.9
20210515103819 67 171 9.0 14.0 0.00 0.00 0.00 90 1019.9
20210515103719 67 176 9.0 14.0 0.00 0.00 0.00 90 1019.9
20210515103618 67 180 9.0 14.0 0.00 0.00 0.00 90 1019.9
20210515103518 67 175 10.0 14.0 0.00 0.00 0.00 90 1019.9
20210515103418 67 167 10.0 14.0 0.00 0.00 0.00 90 1019.9
20210515103317 67 169 10.0 14.0 0.00 0.00 0.00 90 1019.9
20210515103220 67 152 11.0 14.0 0.00 0.00 0.00 90 1019.8
20210515103120 67 164 10.0 14.0 0.00 0.00 0.00 90 1019.8
20210515103020 67 168 9.0 15.0 0.00 0.00 0.00 90 1019.9
20210515102920 67 178 9.0 15.0 0.00 0.00 0.00 90 1019.8
20210515102818 67 165 9.0 14.0 0.00 0.00 0.00 90 1019.9
20210515102718 67 192 9.0 14.0 0.00 0.00 0.00 90 1019.9
20210515102618 67 146 8.0 13.0 0.00 0.00 0.00 90 1019.9
20210515102521 67 146 8.0 13.0 0.00 0.00 0.00 90 1019.9
20210515102422 67 159 8.0 12.0 0.00 0.00 0.00 90 1019.9
20210515102321 67 180 8.0 12.0 0.00 0.00 0.00 90 1019.9
20210515102221 67 165 9.0 12.0 0.00 0.00 0.00 90 1019.9
20210515102120 67 181 9.0 12.0 0.00 0.00 0.00 90 1020.0
20210515102020 67 169 9.0 13.0 0.00 0.00 0.00 90 1019.9
20210515101924 67 159 8.0 13.0 0.00 0.00 0.00 90 1019.9
20210515101823 67 162 8.0 13.0 0.00 0.00 0.00 90 1019.9
20210515101722 67 158 7.0 12.0 0.00 0.00 0.00 90 1019.9
20210515101622 67 198 7.0 12.0 0.00 0.00 0.00 90 1019.9
20210515101522 67 166 7.0 15.0 0.00 0.00 0.00 90 1019.9
20210515101422 67 168 6.0 15.0 0.00 0.00 0.00 90 1019.9
20210515101322 67 190 7.0 15.0 0.00 0.00 0.00 90 1019.9
20210515101225 67 217 7.0 15.0 0.00 0.00 0.00 90 1019.9
20210515101125 67 175 7.0 15.0 0.00 0.00 0.00 90 1019.9
20210515101024 67 181 8.0 15.0 0.00 0.00 0.00 90 1019.9
20210515100926 67 163 8.0 19.0 0.00 0.00 0.00 90 1020.0
20210515100826 67 169 9.0 19.0 0.00 0.00 0.00 90 1019.9
20210515100726 67 170 9.0 19.0 0.00 0.00 0.00 90 1019.9
20210515100629 67 194 10.0 19.0 0.00 0.00 0.00 90 1019.9
20210515100529 67 178 10.0 19.0 0.00 0.00 0.00 90 1019.9
20210515100429 67 166 10.0 19.0 0.00 0.00 0.00 90 1019.8
20210515100328 67 198 9.0 19.0 0.00 0.00 0.00 90 1019.9
20210515100228 67 167 10.0 19.0 0.00 0.00 0.00 90 1019.8
20210515100127 67 171 9.0 14.0 0.00 0.00 0.00 90 1019.8
20210515100027 67 161 8.0 14.0 0.00 0.00 0.00 90 1019.9
20210515095931 67 138 8.0 14.0 0.00 0.00 0.00 90 1019.8
20210515095831 67 169 8.0 16.0 0.00 0.00 0.00 90 1019.8
20210515095731 67 165 7.0 16.0 0.00 0.00 0.00 90 1019.8
20210515095630 67 179 7.0 16.0 0.00 0.00 0.00 89 1019.8
20210515095531 67 182 6.0 16.0 0.00 0.00 0.00 89 1019.8
20210515095432 67 156 6.0 16.0 0.00 0.00 0.00 89 1019.8
20210515095335 67 167 7.0 16.0 0.00 0.00 0.00 89 1019.8
20210515095235 67 156 7.0 16.0 0.00 0.00 0.00 89 1019.8
20210515095134 67 195 7.0 16.0 0.00 0.00 0.00 89 1019.8
20210515095034 67 198 8.0 16.0 0.00 0.00 0.00 89 1019.8
20210515094934 67 152 7.0 16.0 0.00 0.00 0.00 89 1019.8
20210515094833 67 146 7.0 15.0 0.00 0.00 0.00 89 1019.8
20210515094716 67 207 7.0 15.0 0.00 0.00 0.00 89 1019.8
20210515094616 67 148 8.0 14.0 0.00 0.00 0.00 89 1019.9
20210515094536 67 209 9.0 14.0 0.00 0.00 0.00 89 1019.9
20210515094435 67 163 9.0 14.0 0.00 0.00 0.00 89 1019.8
20210515094335 67 155 8.0 14.0 0.00 0.00 0.00 89 1019.8
20210515094235 67 179 8.0 15.0 0.00 0.00 0.00 89 1019.8
20210515094135 67 205 8.0 14.0 0.00 0.00 0.00 89 1019.7
20210515094018 67 167 7.0 14.0 0.00 0.00 0.00 89 1019.7
20210515093918 67 219 7.0 14.0 0.00 0.00 0.00 89 1019.7
20210515093818 67 188 7.0 14.0 0.00 0.00 0.00 89 1019.7
20210515093717 67 157 6.0 12.0 0.00 0.00 0.00 89 1019.7
20210515093618 67 198 6.0 12.0 0.00 0.00 0.00 89 1019.8
20210515093517 67 174 6.0 12.0 0.00 0.00 0.00 89 1019.7
20210515093420 67 190 7.0 12.0 0.00 0.00 0.00 89 1019.8
20210515093320 67 203 6.0 12.0 0.00 0.00 0.00 89 1019.8
20210515093219 67 219 7.0 12.0 0.00 0.00 0.00 89 1019.7
20210515093118 67 186 6.0 13.0 0.00 0.00 0.00 89 1019.7
20210515093018 67 213 6.0 10.0 0.00 0.00 0.00 89 1019.7
20210515092918 67 204 6.0 10.0 0.00 0.00 0.00 89 1019.7
20210515092818 67 184 6.0 10.0 0.00 0.00 0.00 89 1019.7
20210515092721 67 168 6.0 10.0 0.00 0.00 0.00 89 1019.6
20210515092621 67 187 5.0 15.0 0.00 0.00 0.00 89 1019.7
20210515092521 67 175 5.0 15.0 0.00 0.00 0.00 89 1019.7
20210515092423 67 187 5.0 17.0 0.00 0.00 0.00 89 1019.7
20210515092321 67 202 5.0 17.0 0.00 0.00 0.00 89 1019.6
20210515092221 67 188 5.0 17.0 0.00 0.00 0.00 89 1019.7
20210515092123 67 159 6.0 17.0 0.00 0.00 0.00 89 1019.7
20210515092023 67 195 7.0 17.0 0.00 0.00 0.00 89 1019.7
20210515091923 67 188 8.0 17.0 0.00 0.00 0.00 89 1019.7
20210515091823 67 181 10.0 17.0 0.00 0.00 0.00 89 1019.7
20210515091722 67 168 10.0 17.0 0.00 0.00 0.00 89 1019.7
20210515091642 67 165 9.0 17.0 0.00 0.00 0.00 89 1019.8
20210515091532 67 170 9.0 17.0 0.00 0.00 0.00 89 1019.8
20210515091416 67 165 8.0 17.0 0.00 0.00 0.00 89 1019.8
20210515091316 67 157 8.0 13.0 0.00 0.00 0.00 89 1019.9
20210515091235 67 167 7.0 13.0 0.00 0.00 0.00 89 1019.9
20210515091136 67 179 8.0 13.0 0.00 0.00 0.00 89 1019.9
20210515091035 67 153 8.0 13.0 0.00 0.00 0.00 89 1019.9
20210515090935 67 173 8.0 13.0 0.00 0.00 0.00 89 1019.9
20210515090818 67 170 8.0 15.0 0.00 0.00 0.00 89 1019.8
20210515090718 67 183 9.0 15.0 0.00 0.00 0.00 89 1019.9
20210515090617 67 189 9.0 15.0 0.00 0.00 0.00 89 1019.9
20210515090517 67 184 9.0 16.0 0.00 0.00 0.00 89 1019.9
20210515090417 67 173 9.0 16.0 0.00 0.00 0.00 89 1019.8
20210515090317 67 146 7.0 16.0 0.00 0.00 0.00 89 1019.8
20210515090217 67 161 7.0 17.0 0.00 0.00 0.00 89 1019.8
20210515090121 67 163 6.0 17.0 0.00 0.00 0.00 89 1019.8
20210515090020 67 163 7.0 17.0 0.00 0.00 0.00 89 1019.8
20210515085921 67 183 8.0 17.0 0.00 0.00 0.00 89 1019.8
20210515085821 67 175 9.0 17.0 0.00 0.00 0.00 89 1019.8
20210515085721 67 192 10.0 17.0 0.00 0.00 0.00 89 1019.7
20210515085620 67 182 11.0 17.0 0.00 0.00 0.00 89 1019.7
20210515085524 67 144 11.0 17.0 0.00 0.00 0.00 89 1019.7
20210515085425 67 181 11.0 17.0 0.00 0.00 0.00 89 1019.7
20210515085323 67 153 10.0 16.0 0.00 0.00 0.00 89 1019.7
20210515085223 67 164 9.0 16.0 0.00 0.00 0.00 89 1019.7
20210515085123 67 165 9.0 16.0 0.00 0.00 0.00 89 1019.6
20210515085022 67 173 9.0 16.0 0.00 0.00 0.00 89 1019.7
20210515084924 67 163 9.0 16.0 0.00 0.00 0.00 89 1019.7
20210515084827 67 155 9.0 16.0 0.00 0.00 0.00 89 1019.7
20210515084728 67 167 10.0 16.0 0.00 0.00 0.00 89 1019.6
20210515084628 67 200 10.0 16.0 0.00 0.00 0.00 89 1019.7
20210515084527 67 184 10.0 16.0 0.00 0.00 0.00 89 1019.6
20210515084427 67 184 10.0 16.0 0.00 0.00 0.00 89 1019.6
20210515084327 67 158 9.0 15.0 0.00 0.00 0.00 89 1019.7
20210515084231 67 199 8.0 15.0 0.00 0.00 0.00 89 1019.6
20210515084130 67 173 9.0 17.0 0.00 0.00 0.00 89 1019.6
20210515084031 67 167 10.0 17.0 0.00 0.00 0.00 89 1019.6
20210515083932 67 169 10.0 17.0 0.00 0.00 0.00 89 1019.6
20210515083832 67 167 10.0 17.0 0.00 0.00 0.00 89 1019.6
20210515083730 67 198 9.0 16.0 0.00 0.00 0.00 89 1019.6
20210515083626 67 165 9.0 16.0 0.00 0.00 0.00 89 1019.7
20210515083530 67 161 9.0 16.0 0.00 0.00 0.00 89 1019.6
20210515083430 67 170 10.0 16.0 0.00 0.00 0.00 89 1019.7
20210515083329 67 154 9.0 16.0 0.00 0.00 0.00 89 1019.7
20210515083230 67 175 8.0 16.0 0.00 0.00 0.00 89 1019.7
20210515083130 67 161 8.0 16.0 0.00 0.00 0.00 89 1019.7
20210515083030 67 175 7.0 16.0 0.00 0.00 0.00 89 1019.7
20210515082933 67 157 8.0 16.0 0.00 0.00 0.00 89 1019.7
20210515082833 67 186 9.0 16.0 0.00 0.00 0.00 89 1019.6
20210515082732 67 155 9.0 16.0 0.00 0.00 0.00 89 1019.7
20210515082633 67 171 9.0 13.0 0.00 0.00 0.00 89 1019.7
20210515082532 67 169 9.0 14.0 0.00 0.00 0.00 89 1019.6
20210515082433 67 175 9.0 13.0 0.00 0.00 0.00 89 1019.6
20210515082331 67 201 9.0 13.0 0.00 0.00 0.00 89 1019.6
20210515082235 67 162 9.0 13.0 0.00 0.00 0.00 89 1019.7
20210515082135 67 166 10.0 16.0 0.00 0.00 0.00 89 1019.7
20210515082035 67 161 9.0 16.0 0.00 0.00 0.00 89 1019.7
20210515081935 67 161 9.0 16.0 0.00 0.00 0.00 89 1019.7
20210515081834 67 207 9.0 16.0 0.00 0.00 0.00 89 1019.7
20210515081734 67 163 9.0 16.0 0.00 0.00 0.00 89 1019.7
20210515081618 67 182 8.0 16.0 0.00 0.00 0.00 89 1019.8
20210515081518 67 153 9.0 16.0 0.00 0.00 0.00 89 1019.8
20210515081418 67 174 9.0 16.0 0.00 0.00 0.00 89 1019.8
20210515081317 67 164 8.0 16.0 0.00 0.00 0.00 89 1019.8
20210515081217 67 166 9.0 17.0 0.00 0.00 0.00 89 1019.8
20210515081117 67 189 8.0 14.0 0.00 0.00 0.00 89 1019.8
20210515081021 67 186 9.0 15.0 0.00 0.00 0.00 89 1019.8
20210515080921 67 180 9.0 19.0 0.00 0.00 0.00 89 1019.8
20210515080821 67 174 9.0 19.0 0.00 0.00 0.00 89 1019.9
20210515080720 67 157 9.0 19.0 0.00 0.00 0.00 89 1019.9
20210515080620 67 186 9.0 19.0 0.00 0.00 0.00 89 1020.1
20210515080520 67 163 10.0 19.0 0.00 0.00 0.00 89 1020.1
20210515080420 67 172 10.0 19.0 0.00 0.00 0.00 89 1020.0
20210515080320 67 161 9.0 19.0 0.00 0.00 0.00 89 1020.1
20210515080220 67 182 7.0 19.0 0.00 0.00 0.00 89 1020.1
20210515080120 67 178 6.0 14.0 0.00 0.00 0.00 89 1020.1
20210515080019 67 218 6.0 14.0 0.00 0.00 0.00 89 1020.1
20210515075919 67 213 7.0 14.0 0.00 0.00 0.00 89 1020.2
20210515075819 67 193 8.0 14.0 0.00 0.00 0.00 89 1020.1
20210515075722 67 176 9.0 14.0 0.00 0.00 0.00 89 1020.1
20210515075622 67 168 8.0 14.0 0.00 0.00 0.00 89 1020.2
20210515075522 67 187 9.0 14.0 0.00 0.00 0.00 89 1020.2
20210515075424 67 175 9.0 16.0 0.00 0.00 0.00 89 1020.2
20210515075323 67 175 8.0 16.0 0.00 0.00 0.00 89 1020.2
20210515075222 67 188 8.0 13.0 0.00 0.00 0.00 89 1020.2
20210515075122 67 163 8.0 12.0 0.00 0.00 0.00 89 1020.2
20210515075026 67 187 8.0 12.0 0.00 0.00 0.00 89 1020.2
20210515074924 67 166 8.0 12.0 0.00 0.00 0.00 89 1020.3
20210515074823 67 182 8.0 12.0 0.00 0.00 0.00 89 1020.3
20210515074723 67 173 8.0 12.0 0.00 0.00 0.00 89 1020.5
20210515074622 67 173 8.0 12.0 0.00 0.00 0.00 89 1020.4
20210515074520 67 163 7.0 12.0 0.00 0.00 0.00 89 1020.4
20210515074424 67 171 7.0 12.0 0.00 0.00 0.00 89 1020.5
20210515074323 67 168 7.0 12.0 0.00 0.00 0.00 89 1020.4
20210515074223 67 195 7.0 12.0 0.00 0.00 0.00 89 1020.4
20210515074123 67 212 7.0 12.0 0.00 0.00 0.00 89 1020.4
20210515074023 67 188 7.0 12.0 0.00 0.00 0.00 89 1020.6
20210515073923 67 206 6.0 11.0 0.00 0.00 0.00 89 1020.5
20210515073823 67 197 7.0 11.0 0.00 0.00 0.00 89 1020.5
20210515073727 67 204 7.0 11.0 0.00 0.00 0.00 89 1020.5
20210515073624 67 170 7.0 11.0 0.00 0.00 0.00 89 1020.4
20210515073523 67 158 7.0 11.0 0.00 0.00 0.00 89 1020.5
20210515073423 67 177 7.0 11.0 0.00 0.00 0.00 89 1020.5
20210515073323 67 172 6.0 10.0 0.00 0.00 0.00 89 1020.5
20210515073223 67 182 7.0 12.0 0.00 0.00 0.00 89 1020.5
20210515073125 67 189 7.0 12.0 0.00 0.00 0.00 89 1020.5
20210515073024 67 166 6.0 12.0 0.00 0.00 0.00 89 1020.6
20210515072924 67 161 6.0 12.0 0.00 0.00 0.00 89 1020.6
20210515072823 67 188 6.0 12.0 0.00 0.00 0.00 89 1020.6
20210515072723 67 190 5.0 12.0 0.00 0.00 0.00 89 1020.5
20210515072623 67 186 5.0 12.0 0.00 0.00 0.00 89 1020.6
20210515072523 67 160 6.0 12.0 0.00 0.00 0.00 89 1020.6
20210515072428 67 217 6.0 13.0 0.00 0.00 0.00 89 1020.5
20210515072323 67 200 7.0 13.0 0.00 0.00 0.00 89 1020.5
20210515072221 67 196 6.0 13.0 0.00 0.00 0.00 89 1020.6
20210515072120 67 185 6.0 13.0 0.00 0.00 0.00 89 1020.7
20210515072020 68 160 7.0 13.0 0.00 0.00 0.00 89 1020.7
20210515071919 68 213 6.0 13.0 0.00 0.00 0.00 89 1020.8
20210515071824 67 210 6.0 13.0 0.00 0.00 0.00 89 1020.8
20210515071724 68 178 6.0 13.0 0.00 0.00 0.00 89 1020.9
20210515071623 68 161 5.0 13.0 0.00 0.00 0.00 89 1020.9
20210515071523 68 178 5.0 13.0 0.00 0.00 0.00 88 1021.0
20210515071423 68 193 6.0 13.0 0.00 0.00 0.00 88 1021.0
20210515071321 68 192 6.0 13.0 0.00 0.00 0.00 88 1021.0
20210515071221 68 190 7.0 13.0 0.00 0.00 0.00 88 1021.0
20210515071125 68 191 7.0 13.0 0.00 0.00 0.00 89 1021.0
20210515071026 68 189 7.0 11.0 0.00 0.00 0.00 89 1021.0
20210515070925 68 187 6.0 11.0 0.00 0.00 0.00 88 1021.0
20210515070825 68 203 5.0 10.0 0.00 0.00 0.00 88 1021.1
20210515070725 68 183 4.0 11.0 0.00 0.00 0.00 88 1021.1
20210515070624 68 184 4.0 10.0 0.00 0.00 0.00 88 1021.1
20210515070529 68 175 4.0 10.0 0.00 0.00 0.00 88 1021.1
20210515070428 68 205 4.0 10.0 0.00 0.00 0.00 88 1021.0
20210515070328 68 221 4.0 11.0 0.00 0.00 0.00 88 1021.1
20210515070228 68 194 5.0 11.0 0.00 0.00 0.00 88 1021.1
20210515070128 68 207 5.0 11.0 0.00 0.00 0.00 88 1021.1
20210515070027 68 161 5.0 11.0 0.00 0.00 0.00 88 1021.1
20210515065928 68 215 5.0 11.0 0.00 0.00 0.00 88 1021.1
20210515065832 68 186 5.0 11.0 0.00 0.00 0.00 88 1021.1
20210515065732 68 214 5.0 11.0 0.00 0.00 0.00 88 1021.1
20210515065632 68 199 5.0 11.0 0.00 0.00 0.00 88 1021.1
20210515065531 68 214 6.0 11.0 0.00 0.00 0.00 88 1021.1
20210515065432 68 175 6.0 11.0 0.00 0.00 0.00 88 1021.1
20210515065330 68 178 6.0 11.0 0.00 0.00 0.00 88 1021.1
20210515065234 68 186 6.0 11.0 0.00 0.00 0.00 88 1021.1
20210515065133 68 182 6.0 11.0 0.00 0.00 0.00 88 1021.2
20210515065033 68 188 6.0 11.0 0.00 0.00 0.00 88 1021.1
20210515064932 68 174 6.0 11.0 0.00 0.00 0.00 88 1021.2
20210515064832 68 186 7.0 15.0 0.00 0.00 0.00 88 1021.3
20210515064732 68 175 6.0 15.0 0.00 0.00 0.00 88 1021.2
20210515064631 68 166 5.0 15.0 0.00 0.00 0.00 88 1021.1
20210515064535 68 234 5.0 15.0 0.00 0.00 0.00 88 1021.2
20210515064435 68 202 7.0 15.0 0.00 0.00 0.00 87 1021.2
20210515064335 68 205 7.0 15.0 0.00 0.00 0.00 87 1021.2
20210515064234 68 207 7.0 15.0 0.00 0.00 0.00 87 1021.2
20210515064134 68 190 8.0 15.0 0.00 0.00 0.00 88 1021.3
20210515064034 68 216 8.0 15.0 0.00 0.00 0.00 88 1021.2
20210515063917 68 186 7.0 14.0 0.00 0.00 0.00 87 1021.2
20210515063817 68 198 7.0 14.0 0.00 0.00 0.00 87 1021.2
20210515063717 68 201 7.0 14.0 0.00 0.00 0.00 87 1021.3
20210515063617 68 171 7.0 14.0 0.00 0.00 0.00 87 1021.3
20210515063516 68 215 6.0 14.0 0.00 0.00 0.00 87 1021.3
20210515063416 68 206 6.0 14.0 0.00 0.00 0.00 87 1021.3
20210515063320 68 201 6.0 14.0 0.00 0.00 0.00 87 1021.3
20210515063220 68 195 6.0 14.0 0.00 0.00 0.00 87 1021.3
20210515063119 68 223 6.0 14.0 0.00 0.00 0.00 87 1021.3
20210515063020 68 185 5.0 14.0 0.00 0.00 0.00 87 1021.4
20210515062919 68 205 6.0 14.0 0.00 0.00 0.00 87 1021.4
20210515062819 68 170 6.0 14.0 0.00 0.00 0.00 87 1021.4
20210515062718 68 178 6.0 14.0 0.00 0.00 0.00 87 1021.4
20210515062622 68 174 7.0 14.0 0.00 0.00 0.00 87 1021.3
20210515062522 68 207 7.0 15.0 0.00 0.00 0.00 87 1021.4
20210515062423 68 219 7.0 15.0 0.00 0.00 0.00 87 1021.4
20210515062323 68 173 7.0 15.0 0.00 0.00 0.00 87 1021.3
20210515062225 68 166 7.0 15.0 0.00 0.00 0.00 87 1021.3
20210515062124 68 140 8.0 15.0 0.00 0.00 0.00 87 1021.4
20210515062028 69 166 8.0 15.0 0.00 0.00 0.00 87 1021.4
20210515061928 69 186 8.0 14.0 0.00 0.00 0.00 87 1021.3
20210515061828 69 179 9.0 14.0 0.00 0.00 0.00 87 1021.4
20210515061728 69 164 9.0 14.0 0.00 0.00 0.00 87 1021.3
20210515061627 68 172 8.0 14.0 0.00 0.00 0.00 87 1021.3
20210515061527 69 190 7.0 15.0 0.00 0.00 0.00 87 1021.4
20210515061427 69 186 7.0 15.0 0.00 0.00 0.00 87 1021.3
20210515061331 69 168 6.0 15.0 0.00 0.00 0.00 87 1021.3
20210515061231 69 200 7.0 15.0 0.00 0.00 0.00 87 1021.4
20210515061131 69 160 8.0 17.0 0.00 0.00 0.00 87 1021.3
20210515061031 69 178 8.0 17.0 0.00 0.00 0.00 87 1021.3
20210515060931 69 174 9.0 17.0 0.00 0.00 0.00 87 1021.3
20210515060831 69 168 9.0 17.0 0.00 0.00 0.00 87 1021.3
20210515060731 69 191 10.0 17.0 0.00 0.00 0.00 87 1021.3
20210515060631 69 157 10.0 17.0 0.00 0.00 0.00 87 1021.3
20210515060531 69 183 10.0 22.0 0.00 0.00 0.00 87 1021.3
20210515060431 69 167 10.0 22.0 0.00 0.00 0.00 87 1021.2
20210515060330 69 162 10.0 22.0 0.00 0.00 0.00 87 1021.2
20210515060230 69 185 10.0 22.0 0.00 0.00 0.00 87 1021.3
20210515060130 69 196 11.0 22.0 0.00 0.00 0.00 87 1021.2
20210515060034 69 209 11.0 22.0 0.00 0.00 0.00 87 1021.3
20210515055933 69 168 11.0 22.0 0.00 0.00 0.00 87 1021.2
20210515055833 69 162 12.0 22.0 0.00 0.00 0.00 87 1021.3
20210515055733 69 164 13.0 22.0 0.00 0.00 0.00 87 1021.2
20210515055632 69 186 12.0 22.0 0.00 0.00 0.00 87 1021.2
20210515055532 69 182 12.0 22.0 0.00 0.00 0.00 87 1021.2
20210515055436 69 163 12.0 19.0 0.00 0.00 0.00 87 1021.2
20210515055335 69 190 10.0 17.0 0.00 0.00 0.00 87 1021.1
20210515055234 69 175 10.0 17.0 0.00 0.00 0.00 87 1021.1
20210515055135 69 144 10.0 16.0 0.00 0.00 0.00 87 1021.2
20210515055034 69 160 11.0 16.0 0.00 0.00 0.00 87 1021.2
20210515054931 69 164 11.0 15.0 0.00 0.00 0.00 87 1021.2
20210515054831 69 154 11.0 14.0 0.00 0.00 0.00 86 1021.2
20210515054716 69 149 11.0 15.0 0.00 0.00 0.00 87 1021.1
20210515054636 69 158 10.0 15.0 0.00 0.00 0.00 87 1021.2
20210515054535 69 198 10.0 14.0 0.00 0.00 0.00 86 1021.2
20210515054435 69 169 9.0 14.0 0.00 0.00 0.00 86 1021.2
20210515054335 69 159 8.0 17.0 0.00 0.00 0.00 86 1021.2
20210515054234 69 185 7.0 17.0 0.00 0.00 0.00 86 1021.2
20210515054118 69 202 7.0 17.0 0.00 0.00 0.00 86 1021.2
20210515054017 69 159 8.0 17.0 0.00 0.00 0.00 86 1021.2
20210515053917 69 162 8.0 17.0 0.00 0.00 0.00 86 1021.2
20210515053716 69 180 10.0 17.0 0.00 0.00 0.00 86 1021.2
20210515053616 69 157 10.0 16.0 0.00 0.00 0.00 86 1021.2
20210515053520 69 148 10.0 16.0 0.00 0.00 0.00 86 1021.2
20210515053419 69 189 9.0 16.0 0.00 0.00 0.00 86 1021.2
20210515053319 69 173 9.0 16.0 0.00 0.00 0.00 86 1021.2
20210515053219 69 196 10.0 16.0 0.00 0.00 0.00 86 1021.2
20210515053119 69 171 11.0 17.0 0.00 0.00 0.00 86 1021.2
20210515053018 69 196 11.0 17.0 0.00 0.00 0.00 86 1021.2
20210515052919 69 171 12.0 17.0 0.00 0.00 0.00 86 1021.2
20210515052823 69 149 13.0 17.0 0.00 0.00 0.00 86 1021.1
20210515052743 69 174 13.0 18.0 0.00 0.00 0.00 86 1021.2
20210515052616 69 155 12.0 17.0 0.00 0.00 0.00 86 1021.2
20210515052536 70 162 12.0 17.0 0.00 0.00 0.00 86 1021.1
20210515052434 69 165 11.0 17.0 0.00 0.00 0.00 86 1021.1
20210515052333 70 178 11.0 19.0 0.00 0.00 0.00 86 1021.2
20210515052216 70 163 10.0 19.0 0.00 0.00 0.00 86 1021.2
20210515052116 70 163 11.0 18.0 0.00 0.00 0.00 86 1021.2
20210515052016 70 157 10.0 23.0 0.00 0.00 0.00 85 1021.2
20210515051935 70 160 11.0 23.0 0.00 0.00 0.00 85 1021.1
20210515051835 70 155 12.0 23.0 0.00 0.00 0.00 85 1021.1
20210515051735 70 159 13.0 23.0 0.00 0.00 0.00 85 1021.1
20210515051635 70 171 12.0 23.0 0.00 0.00 0.00 85 1021.1
20210515051518 70 165 12.0 23.0 0.00 0.00 0.00 85 1021.1
20210515051418 70 169 10.0 23.0 0.00 0.00 0.00 85 1021.1
20210515051317 70 169 10.0 23.0 0.00 0.00 0.00 85 1021.1
20210515051217 70 192 11.0 23.0 0.00 0.00 0.00 85 1021.0
20210515051117 70 181 11.0 21.0 0.00 0.00 0.00 85 1021.0
20210515051017 70 207 10.0 21.0 0.00 0.00 0.00 85 1021.1
20210515050920 70 168 10.0 21.0 0.00 0.00 0.00 85 1021.1
20210515050821 70 163 10.0 21.0 0.00 0.00 0.00 85 1021.1
20210515050720 70 159 10.0 23.0 0.00 0.00 0.00 85 1021.1
20210515050622 70 159 9.0 23.0 0.00 0.00 0.00 85 1021.1
20210515050522 70 154 10.0 23.0 0.00 0.00 0.00 84 1021.1
20210515050422 70 180 11.0 23.0 0.00 0.00 0.00 84 1021.0
20210515050322 70 179 11.0 23.0 0.00 0.00 0.00 84 1021.0
20210515050226 70 181 12.0 23.0 0.00 0.00 0.00 84 1021.0
20210515050125 70 200 13.0 24.0 0.00 0.00 0.00 84 1021.0
20210515050025 70 196 12.0 24.0 0.00 0.00 0.00 84 1021.1
20210515045918 70 165 13.0 24.0 0.00 0.00 0.00 84 1021.0
20210515045818 70 167 12.0 24.0 0.00 0.00 0.00 84 1021.1
20210515045718 70 148 13.0 24.0 0.00 0.00 0.00 84 1021.0
20210515045622 70 174 13.0 24.0 0.00 0.00 0.00 84 1021.1
20210515045522 70 150 15.0 24.0 0.00 0.00 0.00 84 1021.1
20210515045423 70 192 16.0 24.0 0.00 0.00 0.00 84 1021.0
20210515045322 71 154 15.0 22.0 0.00 0.00 0.00 84 1021.0
20210515045223 71 167 16.0 21.0 0.00 0.00 0.00 84 1020.9
20210515045123 71 161 15.0 21.0 0.00 0.00 0.00 84 1020.9
20210515045023 71 165 14.0 21.0 0.00 0.00 0.00 83 1020.9
20210515044927 71 153 15.0 23.0 0.00 0.00 0.00 83 1020.9
20210515044827 71 165 14.0 23.0 0.00 0.00 0.00 83 1020.8
20210515044727 71 171 15.0 23.0 0.00 0.00 0.00 83 1020.8
20210515044626 71 164 14.0 23.0 0.00 0.00 0.00 84 1021.0
20210515044526 71 180 15.0 23.0 0.00 0.00 0.00 83 1020.9
20210515044426 71 169 15.0 23.0 0.00 0.00 0.00 83 1020.9
20210515044331 71 146 15.0 23.0 0.00 0.00 0.00 83 1020.8
20210515044231 71 148 15.0 23.0 0.00 0.00 0.00 83 1020.7
20210515044131 71 136 13.0 25.0 0.00 0.00 0.00 83 1020.7
20210515044031 71 166 13.0 22.0 0.00 0.00 0.00 83 1020.7
20210515043930 71 150 12.0 23.0 0.00 0.00 0.00 83 1020.6
20210515043830 71 180 12.0 23.0 0.00 0.00 0.00 83 1020.7
20210515043731 71 232 13.0 23.0 0.00 0.00 0.00 83 1020.7
20210515043635 71 146 12.0 23.0 0.00 0.00 0.00 83 1020.7
20210515043533 71 212 12.0 23.0 0.00 0.00 0.00 83 1020.6
20210515043433 71 158 12.0 20.0 0.00 0.00 0.00 83 1020.7
20210515043333 71 187 12.0 20.0 0.00 0.00 0.00 83 1020.7
20210515043233 71 194 13.0 20.0 0.00 0.00 0.00 82 1020.8
20210515043133 71 170 13.0 22.0 0.00 0.00 0.00 82 1020.8
20210515043017 71 163 14.0 22.0 0.00 0.00 0.00 82 1020.7
20210515042917 71 160 15.0 22.0 0.00 0.00 0.00 82 1020.7
20210515042816 71 155 14.0 22.0 0.00 0.00 0.00 82 1020.7
20210515042716 71 185 14.0 28.0 0.00 0.00 0.00 82 1020.6
20210515042635 71 150 14.0 28.0 0.00 0.00 0.00 82 1020.6
20210515042535 71 181 14.0 28.0 0.00 0.00 0.00 82 1020.5
20210515042420 71 162 15.0 28.0 0.00 0.00 0.00 82 1020.6
20210515042319 71 176 16.0 28.0 0.00 0.00 0.00 82 1020.6
20210515042219 71 174 17.0 28.0 0.00 0.00 0.00 82 1020.6
20210515042119 71 175 17.0 28.0 0.00 0.00 0.00 82 1020.6
20210515042018 71 195 18.0 28.0 0.00 0.00 0.00 81 1020.6
20210515041917 71 171 18.0 30.0 0.00 0.00 0.00 81 1020.7
20210515041817 72 155 17.0 27.0 0.00 0.00 0.00 81 1020.7
20210515041721 72 175 17.0 27.0 0.00 0.00 0.00 81 1020.7
20210515041621 72 172 19.0 27.0 0.00 0.00 0.00 81 1020.6
20210515041521 72 165 17.0 27.0 0.00 0.00 0.00 81 1020.7
20210515041421 72 155 17.0 28.0 0.00 0.00 0.00 81 1020.6
20210515041320 72 149 15.0 29.0 0.00 0.00 0.00 81 1020.7
20210515041221 72 163 14.0 26.0 0.00 0.00 0.00 80 1020.7
20210515041125 72 166 15.0 26.0 0.00 0.00 0.00 80 1020.7
20210515041025 72 154 16.0 26.0 0.00 0.00 0.00 80 1020.7
20210515040924 72 202 17.0 26.0 0.00 0.00 0.00 80 1020.7
20210515040824 72 168 16.0 25.0 0.00 0.00 0.00 80 1020.7
20210515040724 72 159 15.0 25.0 0.00 0.00 0.00 80 1020.7
20210515040623 72 154 14.0 21.0 0.00 0.00 0.00 80 1020.7
20210515040523 72 164 14.0 21.0 0.00 0.00 0.00 80 1020.7
20210515040428 72 154 13.0 21.0 0.00 0.00 0.00 80 1020.7
20210515040327 72 125 14.0 23.0 0.00 0.00 0.00 80 1020.7
20210515040227 72 125 14.0 23.0 0.00 0.00 0.00 80 1020.8
20210515040127 72 186 14.0 31.0 0.00 0.00 0.00 79 1020.8
20210515040026 72 221 14.0 31.0 0.00 0.00 0.00 79 1020.8
20210515035926 72 168 15.0 31.0 0.00 0.00 0.00 79 1020.7
20210515035830 72 155 15.0 31.0 0.00 0.00 0.00 79 1020.8
20210515035730 72 168 15.0 31.0 0.00 0.00 0.00 78 1020.7
20210515035629 72 176 16.0 31.0 0.00 0.00 0.00 78 1020.7
20210515035530 72 173 17.0 31.0 0.00 0.00 0.00 78 1020.8
20210515035431 72 149 18.0 26.0 0.00 0.00 0.00 78 1020.8
20210515035329 73 189 17.0 26.0 0.00 0.00 0.00 78 1020.7
20210515035230 73 169 16.0 26.0 0.00 0.00 0.00 78 1020.7
20210515035133 73 140 15.0 26.0 0.00 0.00 0.00 78 1020.7
20210515035033 72 180 15.0 26.0 0.00 0.00 0.00 78 1020.6
20210515034932 73 168 14.0 26.0 0.00 0.00 0.00 78 1020.7
20210515034832 73 180 15.0 25.0 0.00 0.00 0.00 78 1020.6
20210515034732 73 151 15.0 25.0 0.00 0.00 0.00 78 1020.7
20210515034632 73 161 16.0 25.0 0.00 0.00 0.00 78 1020.6
20210515034516 73 176 16.0 25.0 0.00 0.00 0.00 78 1020.6
20210515034416 73 159 16.0 25.0 0.00 0.00 0.00 78 1020.6
20210515034316 73 145 15.0 25.0 0.00 0.00 0.00 78 1020.5
20210515034236 73 161 15.0 27.0 0.00 0.00 0.00 78 1020.6
20210515034135 73 143 14.0 25.0 0.00 0.00 0.00 78 1020.5
20210515034035 73 145 14.0 29.0 0.00 0.00 0.00 78 1020.5
20210515033918 73 158 13.0 27.0 0.00 0.00 0.00 78 1020.5
20210515033818 73 207 13.0 27.0 0.00 0.00 0.00 78 1020.5
20210515033717 73 134 13.0 27.0 0.00 0.00 0.00 78 1020.5
20210515033617 73 148 14.0 25.0 0.00 0.00 0.00 78 1020.5
20210515033517 73 166 14.0 25.0 0.00 0.00 0.00 77 1020.5
20210515033417 73 172 15.0 25.0 0.00 0.00 0.00 77 1020.5
20210515033317 73 165 15.0 23.0 0.00 0.00 0.00 77 1020.5
20210515033220 73 166 15.0 23.0 0.00 0.00 0.00 77 1020.5
20210515033121 73 105 14.0 23.0 0.00 0.00 0.00 77 1020.4
20210515033020 73 162 13.0 23.0 0.00 0.00 0.00 77 1020.5
20210515032921 73 174 13.0 22.0 0.00 0.00 0.00 77 1020.5
20210515032819 73 175 13.0 22.0 0.00 0.00 0.00 77 1020.4
20210515032720 73 148 13.0 22.0 0.00 0.00 0.00 77 1020.4
20210515032625 73 144 13.0 20.0 0.00 0.00 0.00 77 1020.4
20210515032525 73 146 12.0 19.0 0.00 0.00 0.00 77 1020.4
20210515032427 73 158 11.0 17.0 0.00 0.00 0.00 77 1020.4
20210515032326 73 151 10.0 16.0 0.00 0.00 0.00 77 1020.5
20210515032226 73 170 10.0 15.0 0.00 0.00 0.00 76 1020.5
20210515032127 73 154 9.0 15.0 0.00 0.00 0.00 76 1020.4
20210515032027 73 134 9.0 14.0 0.00 0.00 0.00 76 1020.4
20210515031931 73 148 8.0 14.0 0.00 0.00 0.00 75 1020.4
20210515031832 73 142 8.0 14.0 0.00 0.00 0.00 75 1020.3
20210515031730 73 159 8.0 12.0 0.00 0.00 0.00 75 1020.4
20210515031630 73 142 8.0 12.0 0.00 0.00 0.00 75 1020.4
20210515031530 73 162 8.0 12.0 0.00 0.00 0.00 75 1020.3
20210515031431 73 151 8.0 12.0 0.00 0.00 0.00 75 1020.4
20210515031334 73 146 7.0 12.0 0.00 0.00 0.00 75 1020.3
20210515031235 73 162 7.0 11.0 0.00 0.00 0.00 75 1020.3
20210515031135 73 161 6.0 10.0 0.00 0.00 0.00 75 1020.3
20210515031035 73 156 6.0 14.0 0.00 0.00 0.00 75 1020.5
20210515030934 73 166 6.0 14.0 0.00 0.00 0.00 74 1020.4
20210515030834 73 157 6.0 14.0 0.00 0.00 0.00 74 1020.5
20210515030717 73 150 7.0 14.0 0.00 0.00 0.00 75 1020.4
20210515030617 73 156 7.0 14.0 0.00 0.00 0.00 74 1020.5
20210515030517 73 161 7.0 14.0 0.00 0.00 0.00 74 1020.4
20210515030418 73 163 7.0 14.0 0.00 0.00 0.00 74 1020.4
20210515030317 73 137 7.0 14.0 0.00 0.00 0.00 74 1020.5
20210515030217 74 155 6.0 14.0 0.00 0.00 0.00 74 1020.5
20210515030117 74 117 7.0 14.0 0.00 0.00 0.00 74 1020.3
20210515030022 74 146 7.0 14.0 0.00 0.00 0.00 74 1020.5
20210515025943 74 147 7.0 14.0 0.00 0.00 0.00 74 1020.5
20210515025815 74 134 7.0 14.0 0.00 0.00 0.00 73 1020.5
20210515025715 74 176 7.0 15.0 0.00 0.00 0.00 73 1020.5
20210515025617 74 149 7.0 15.0 0.00 0.00 0.00 73 1020.5
20210515025517 74 164 7.0 15.0 0.00 0.00 0.00 73 1020.4
20210515025422 74 165 7.0 15.0 0.00 0.00 0.00 73 1020.5
20210515025323 74 142 7.0 15.0 0.00 0.00 0.00 73 1020.4
20210515025223 74 153 8.0 15.0 0.00 0.00 0.00 73 1020.4
20210515025122 74 124 8.0 15.0 0.00 0.00 0.00 73 1020.3
20210515025022 74 157 9.0 15.0 0.00 0.00 0.00 73 1020.4
20210515024922 74 170 8.0 15.0 0.00 0.00 0.00 73 1020.4
20210515024821 74 140 8.0 15.0 0.00 0.00 0.00 73 1020.3
20210515024725 74 155 8.0 12.0 0.00 0.00 0.00 73 1020.4
20210515024625 74 170 7.0 11.0 0.00 0.00 0.00 73 1020.4
20210515024525 74 172 8.0 11.0 0.00 0.00 0.00 73 1020.4
20210515024424 74 152 7.0 11.0 0.00 0.00 0.00 73 1020.3
20210515024325 74 158 8.0 11.0 0.00 0.00 0.00 73 1020.3
20210515024225 74 157 8.0 11.0 0.00 0.00 0.00 73 1020.3
20210515024128 74 159 8.0 11.0 0.00 0.00 0.00 73 1020.3
20210515024027 74 160 7.0 10.0 0.00 0.00 0.00 73 1020.3
20210515023927 74 164 7.0 10.0 0.00 0.00 0.00 73 1020.3
20210515023828 74 155 7.0 10.0 0.00 0.00 0.00 73 1020.3
20210515023728 74 165 7.0 10.0 0.00 0.00 0.00 73 1020.3
20210515023627 74 165 7.0 10.0 0.00 0.00 0.00 73 1020.3
20210515023527 74 159 7.0 10.0 0.00 0.00 0.00 72 1020.3
20210515023430 74 146 6.0 10.0 0.00 0.00 0.00 72 1020.4
20210515023330 74 154 6.0 10.0 0.00 0.00 0.00 72 1020.3
20210515023230 74 149 6.0 10.0 0.00 0.00 0.00 72 1020.3
20210515023129 74 155 5.0 10.0 0.00 0.00 0.00 72 1020.3
20210515023029 74 148 5.0 10.0 0.00 0.00 0.00 72 1020.3
20210515022929 74 150 5.0 10.0 0.00 0.00 0.00 72 1020.4
20210515022832 74 153 6.0 10.0 0.00 0.00 0.00 72 1020.3
20210515022732 74 154 6.0 10.0 0.00 0.00 0.00 72 1020.3
20210515022632 74 147 6.0 10.0 0.00 0.00 0.00 72 1020.3
20210515022529 74 150 6.0 10.0 0.00 0.00 0.00 72 1020.2
20210515022430 74 154 6.0 10.0 0.00 0.00 0.00 72 1020.2
20210515022329 74 153 6.0 10.0 0.00 0.00 0.00 72 1020.3
20210515022229 74 158 6.0 9.0 0.00 0.00 0.00 72 1020.2
20210515022132 74 160 5.0 9.0 0.00 0.00 0.00 72 1020.2
20210515022033 74 154 5.0 9.0 0.00 0.00 0.00 72 1020.2
20210515021932 74 154 5.0 9.0 0.00 0.00 0.00 72 1020.2
20210515021833 74 154 5.0 9.0 0.00 0.00 0.00 71 1020.2
20210515021733 74 150 5.0 9.0 0.00 0.00 0.00 71 1020.2
20210515021633 74 148 5.0 9.0 0.00 0.00 0.00 72 1020.3
20210515021517 74 148 5.0 9.0 0.00 0.00 0.00 72 1020.2
20210515021416 74 156 5.0 8.0 0.00 0.00 0.00 71 1020.2
20210515021316 74 156 5.0 10.0 0.00 0.00 0.00 71 1020.3
20210515021216 74 149 5.0 10.0 0.00 0.00 0.00 71 1020.3
20210515021116 74 151 6.0 10.0 0.00 0.00 0.00 71 1020.2
20210515021035 74 152 5.0 10.0 0.00 0.00 0.00 71 1020.2
20210515020919 74 153 6.0 10.0 0.00 0.00 0.00 71 1020.2
20210515020817 74 153 6.0 10.0 0.00 0.00 0.00 71 1020.1
20210515020717 74 153 6.0 10.0 0.00 0.00 0.00 71 1020.2
20210515020616 74 158 6.0 10.0 0.00 0.00 0.00 71 1020.1
20210515020516 74 159 5.0 10.0 0.00 0.00 0.00 71 1020.2
20210515020436 74 158 5.0 10.0 0.00 0.00 0.00 71 1020.1
20210515020335 74 156 4.0 10.0 0.00 0.00 0.00 71 1020.1
20210515020219 74 142 4.0 10.0 0.00 0.00 0.00 71 1020.1
20210515020119 74 153 4.0 9.0 0.00 0.00 0.00 71 1020.0
20210515020018 74 152 5.0 9.0 0.00 0.00 0.00 71 1020.1
20210515015918 74 151 5.0 10.0 0.00 0.00 0.00 70 1020.1
20210515015818 74 151 5.0 10.0 0.00 0.00 0.00 70 1020.1
20210515015717 74 153 5.0 10.0 0.00 0.00 0.00 70 1020.1
20210515015621 74 152 5.0 10.0 0.00 0.00 0.00 70 1020.1
20210515015521 74 154 5.0 10.0 0.00 0.00 0.00 70 1020.1
20210515015443 75 153 5.0 10.0 0.00 0.00 0.00 70 1020.1
20210515015315 75 150 5.0 10.0 0.00 0.00 0.00 70 1020.1
20210515015235 75 148 5.0 10.0 0.00 0.00 0.00 70 1020.1
20210515015135 75 148 5.0 10.0 0.00 0.00 0.00 70 1020.0
20210515015035 75 149 5.0 10.0 0.00 0.00 0.00 70 1020.0
20210515014920 75 150 5.0 9.0 0.00 0.00 0.00 70 1020.0
20210515014819 75 146 5.0 9.0 0.00 0.00 0.00 70 1020.0
20210515014719 75 151 5.0 8.0 0.00 0.00 0.00 70 1020.1
20210515014619 75 153 5.0 8.0 0.00 0.00 0.00 69 1020.0
20210515014518 75 148 5.0 8.0 0.00 0.00 0.00 69 1020.1
20210515014418 75 157 4.0 8.0 0.00 0.00 0.00 69 1020.0
20210515014322 75 147 4.0 7.0 0.00 0.00 0.00 69 1020.0
20210515014221 75 150 3.0 5.0 0.00 0.00 0.00 69 1020.0
20210515014143 75 144 3.0 5.0 0.00 0.00 0.00 69 1020.1
20210515014016 75 146 4.0 5.0 0.00 0.00 0.00 69 1020.0
20210515013916 75 144 3.0 5.0 0.00 0.00 0.00 69 1020.0
20210515013815 75 144 3.0 5.0 0.00 0.00 0.00 69 1020.1
20210515013735 75 146 4.0 7.0 0.00 0.00 0.00 69 1020.0
20210515013619 75 144 4.0 7.0 0.00 0.00 0.00 69 1019.9
20210515013519 75 144 4.0 7.0 0.00 0.00 0.00 69 1020.0
20210515013418 75 138 4.0 9.0 0.00 0.00 0.00 69 1019.9
20210515013317 75 150 4.0 9.0 0.00 0.00 0.00 69 1020.0
20210515013217 75 150 4.0 9.0 0.00 0.00 0.00 69 1019.9
20210515013117 75 149 5.0 9.0 0.00 0.00 0.00 69 1019.9
20210515013020 75 149 5.0 9.0 0.00 0.00 0.00 69 1019.9
20210515012920 75 152 5.0 9.0 0.00 0.00 0.00 68 1019.9
20210515012820 75 153 5.0 9.0 0.00 0.00 0.00 68 1019.9
20210515012719 75 170 5.0 9.0 0.00 0.00 0.00 68 1019.8
20210515012619 75 161 5.0 9.0 0.00 0.00 0.00 68 1019.9
20210515012519 75 160 5.0 9.0 0.00 0.00 0.00 68 1019.9
20210515012420 75 153 5.0 9.0 0.00 0.00 0.00 68 1019.9
20210515012323 75 153 6.0 11.0 0.00 0.00 0.00 68 1019.9
20210515012223 75 158 6.0 11.0 0.00 0.00 0.00 68 1019.8
20210515012122 75 159 7.0 11.0 0.00 0.00 0.00 68 1019.8
20210515012022 75 160 6.0 11.0 0.00 0.00 0.00 68 1019.9
20210515011922 75 155 6.0 11.0 0.00 0.00 0.00 68 1019.8
20210515011822 75 171 5.0 11.0 0.00 0.00 0.00 68 1019.8
20210515011726 75 153 5.0 11.0 0.00 0.00 0.00 67 1019.8
20210515011625 75 158 5.0 11.0 0.00 0.00 0.00 67 1019.8
20210515011525 75 150 5.0 11.0 0.00 0.00 0.00 67 1019.8
20210515011426 75 150 6.0 11.0 0.00 0.00 0.00 67 1019.8
20210515011325 76 147 6.0 11.0 0.00 0.00 0.00 67 1019.8
20210515011226 76 165 6.0 11.0 0.00 0.00 0.00 67 1019.8
20210515011125 76 160 6.0 11.0 0.00 0.00 0.00 67 1019.8
20210515011029 76 142 6.0 11.0 0.00 0.00 0.00 67 1019.8
20210515010928 76 146 6.0 11.0 0.00 0.00 0.00 67 1019.7
20210515010829 76 151 6.0 11.0 0.00 0.00 0.00 66 1019.7
20210515010729 76 157 6.0 11.0 0.00 0.00 0.00 66 1019.7
20210515010629 76 129 7.0 11.0 0.00 0.00 0.00 66 1019.7
20210515010528 76 155 7.0 11.0 0.00 0.00 0.00 66 1019.8
20210515010432 76 163 7.0 11.0 0.00 0.00 0.00 67 1019.7
20210515010332 76 156 7.0 12.0 0.00 0.00 0.00 67 1019.8
20210515010231 76 158 7.0 12.0 0.00 0.00 0.00 66 1019.7
20210515010131 76 166 8.0 17.0 0.00 0.00 0.00 66 1019.6
20210515010031 76 155 8.0 17.0 0.00 0.00 0.00 66 1019.7
20210515005931 76 155 8.0 17.0 0.00 0.00 0.00 66 1019.6
20210515005831 76 166 8.0 17.0 0.00 0.00 0.00 66 1019.7
20210515005735 76 159 9.0 17.0 0.00 0.00 0.00 66 1019.6
20210515005635 76 157 9.0 17.0 0.00 0.00 0.00 65 1019.7
20210515005535 76 173 9.0 17.0 0.00 0.00 0.00 65 1019.6
20210515005417 76 155 8.0 17.0 0.00 0.00 0.00 65 1019.6
20210515005317 76 159 8.0 14.0 0.00 0.00 0.00 65 1019.6
20210515005217 76 168 7.0 12.0 0.00 0.00 0.00 65 1019.6
20210515005120 76 150 7.0 12.0 0.00 0.00 0.00 65 1019.7
20210515005020 76 173 7.0 12.0 0.00 0.00 0.00 65 1019.6
20210515004920 77 109 7.0 12.0 0.00 0.00 0.00 65 1019.6
20210515004817 77 157 7.0 12.0 0.00 0.00 0.00 65 1019.6
20210515004717 77 142 7.0 12.0 0.00 0.00 0.00 65 1019.6
20210515004617 77 167 7.0 16.0 0.00 0.00 0.00 65 1019.6
20210515004520 77 160 7.0 16.0 0.00 0.00 0.00 65 1019.6
20210515004420 77 146 7.0 16.0 0.00 0.00 0.00 65 1019.6
20210515004320 77 161 7.0 16.0 0.00 0.00 0.00 64 1019.6
20210515004220 77 145 9.0 16.0 0.00 0.00 0.00 64 1019.5
20210515004119 77 132 9.0 16.0 0.00 0.00 0.00 64 1019.6
20210515004019 77 159 9.0 16.0 0.00 0.00 0.00 63 1019.6
20210515003919 77 172 8.0 16.0 0.00 0.00 0.00 63 1019.6
20210515003822 77 157 8.0 16.0 0.00 0.00 0.00 63 1019.6
20210515003722 77 146 7.0 16.0 0.00 0.00 0.00 63 1019.6
20210515003622 77 145 5.0 13.0 0.00 0.00 0.00 63 1019.6
20210515003521 77 158 5.0 13.0 0.00 0.00 0.00 63 1019.6
20210515003421 77 157 5.0 13.0 0.00 0.00 0.00 63 1019.6
20210515003322 77 152 5.0 13.0 0.00 0.00 0.00 64 1019.6
20210515003227 77 134 5.0 13.0 0.00 0.00 0.00 63 1019.7
20210515003126 77 155 6.0 13.0 0.00 0.00 0.00 63 1019.7
20210515003026 77 151 6.0 13.0 0.00 0.00 0.00 62 1019.7
20210515002925 77 138 6.0 13.0 0.00 0.00 0.00 62 1019.6
20210515002826 77 158 6.0 13.0 0.00 0.00 0.00 63 1019.7
20210515002726 77 151 6.0 13.0 0.00 0.00 0.00 62 1019.6
20210515002626 77 142 7.0 13.0 0.00 0.00 0.00 62 1019.7
20210515002530 77 175 8.0 15.0 0.00 0.00 0.00 62 1019.7
20210515002431 77 145 8.0 15.0 0.00 0.00 0.00 62 1019.7
20210515002330 77 174 8.0 15.0 0.00 0.00 0.00 62 1019.7
20210515002229 77 178 9.0 15.0 0.00 0.00 0.00 62 1019.7
20210515002129 77 169 9.0 15.0 0.00 0.00 0.00 62 1019.7
20210515002029 77 182 9.0 15.0 0.00 0.00 0.00 62 1019.7
20210515001932 77 173 9.0 15.0 0.00 0.00 0.00 62 1019.7
20210515001832 77 164 9.0 15.0 0.00 0.00 0.00 62 1019.6
20210515001732 77 156 9.0 15.0 0.00 0.00 0.00 62 1019.7
20210515001631 77 169 9.0 15.0 0.00 0.00 0.00 62 1019.7
20210515001531 77 168 8.0 14.0 0.00 0.00 0.00 62 1019.7
20210515001431 77 165 8.0 14.0 0.00 0.00 0.00 62 1019.6
20210515001328 77 161 8.0 14.0 0.00 0.00 0.00 61 1019.6
20210515001232 77 188 7.0 14.0 0.00 0.00 0.00 61 1019.7
20210515001131 77 173 8.0 13.0 0.00 0.00 0.00 62 1019.7
20210515001031 77 153 8.0 13.0 0.00 0.00 0.00 61 1019.7
20210515000931 77 181 8.0 13.0 0.00 0.00 0.00 61 1019.7
20210515000831 77 190 8.0 13.0 0.00 0.00 0.00 62 1019.7
20210515000730 77 176 9.0 13.0 0.00 0.00 0.00 61 1019.7
20210515000634 77 196 9.0 13.0 0.00 0.00 0.00 61 1019.8
20210515000534 77 183 9.0 13.0 0.00 0.00 0.00 61 1019.8
20210515000434 77 158 8.0 12.0 0.00 0.00 0.00 61 1019.8
20210515000333 77 165 8.0 12.0 0.00 0.00 0.00 61 1019.8
20210515000233 77 169 8.0 15.0 0.00 0.00 0.00 61 1019.8
20210515000133 77 140 8.0 16.0 0.00 0.00 0.00 61 1019.8
20210515000017 77 154 8.0 16.0 0.00 0.00 0.00 61 1019.8
20210514235916 77 167 9.0 16.0 0.00 0.00 0.00 60 1019.8
20210514235816 77 176 9.0 16.0 0.00 0.00 0.00 60 1019.8
20210514235716 77 182 10.0 16.0 0.00 0.00 0.00 60 1019.9
20210514235635 77 173 10.0 16.0 0.00 0.00 0.00 60 1019.9
20210514235535 77 180 9.0 16.0 0.00 0.00 0.00 60 1019.9
20210514235416 77 171 10.0 16.0 0.00 0.00 0.00 60 1019.9
20210514235320 78 158 9.0 16.0 0.00 0.00 0.00 60 1019.9
20210514235218 78 171 9.0 13.0 0.00 0.00 0.00 60 1019.9
20210514235118 78 167 8.0 13.0 0.00 0.00 0.00 60 1019.9
20210514235017 78 167 8.0 13.0 0.00 0.00 0.00 60 1019.9
20210514234917 78 209 8.0 13.0 0.00 0.00 0.00 60 1019.9
20210514234817 78 158 9.0 13.0 0.00 0.00 0.00 60 1019.9
20210514234720 78 196 9.0 13.0 0.00 0.00 0.00 60 1019.9
20210514234620 78 182 9.0 13.0 0.00 0.00 0.00 60 1019.9
20210514234521 78 182 10.0 16.0 0.00 0.00 0.00 60 1019.9
20210514234422 78 159 9.0 16.0 0.00 0.00 0.00 60 1019.9
20210514234321 78 179 9.0 16.0 0.00 0.00 0.00 60 1020.0
20210514234221 78 185 10.0 16.0 0.00 0.00 0.00 60 1020.0
20210514234121 78 166 9.0 16.0 0.00 0.00 0.00 60 1020.1
20210514234025 78 153 9.0 16.0 0.00 0.00 0.00 60 1020.0
20210514233925 78 163 10.0 16.0 0.00 0.00 0.00 60 1020.1
20210514233825 77 171 11.0 16.0 0.00 0.00 0.00 60 1020.0
20210514233725 77 148 11.0 16.0 0.00 0.00 0.00 60 1020.0
20210514233625 78 157 11.0 16.0 0.00 0.00 0.00 60 1020.1
20210514233524 78 174 11.0 17.0 0.00 0.00 0.00 60 1020.0
20210514233428 78 160 10.0 17.0 0.00 0.00 0.00 60 1020.0
20210514233328 78 166 10.0 17.0 0.00 0.00 0.00 60 1020.1
20210514233228 78 160 10.0 17.0 0.00 0.00 0.00 60 1020.1
20210514233128 78 171 10.0 17.0 0.00 0.00 0.00 60 1020.1
20210514233028 78 169 11.0 17.0 0.00 0.00 0.00 60 1020.1
20210514232927 78 157 11.0 17.0 0.00 0.00 0.00 59 1020.1
20210514232828 78 150 12.0 17.0 0.00 0.00 0.00 59 1020.2
20210514232732 78 170 12.0 17.0 0.00 0.00 0.00 59 1020.2
20210514232631 78 151 11.0 17.0 0.00 0.00 0.00 59 1020.1
20210514232530 78 150 12.0 17.0 0.00 0.00 0.00 59 1020.2
20210514232432 78 156 12.0 17.0 0.00 0.00 0.00 59 1020.2
20210514232331 78 136 11.0 16.0 0.00 0.00 0.00 59 1020.2
20210514232231 78 152 10.0 16.0 0.00 0.00 0.00 59 1020.2
20210514232134 78 145 9.0 16.0 0.00 0.00 0.00 59 1020.2
20210514232034 78 161 9.0 16.0 0.00 0.00 0.00 60 1020.2
20210514231934 78 138 9.0 16.0 0.00 0.00 0.00 60 1020.2
20210514231834 78 156 9.0 16.0 0.00 0.00 0.00 60 1020.2
20210514231733 78 173 11.0 16.0 0.00 0.00 0.00 60 1020.2
20210514231633 78 179 11.0 16.0 0.00 0.00 0.00 59 1020.3
20210514231516 78 148 9.0 16.0 0.00 0.00 0.00 59 1020.3
20210514231416 78 146 8.0 16.0 0.00 0.00 0.00 59 1020.3
20210514231316 78 156 6.0 12.0 0.00 0.00 0.00 59 1020.2
20210514231236 78 172 6.0 12.0 0.00 0.00 0.00 59 1020.2
20210514231135 78 122 5.0 12.0 0.00 0.00 0.00 59 1020.2
20210514231035 78 161 5.0 12.0 0.00 0.00 0.00 59 1020.2
20210514230935 78 166 5.0 12.0 0.00 0.00 0.00 60 1020.3
20210514230819 78 164 5.0 15.0 0.00 0.00 0.00 60 1020.3
20210514230718 78 124 7.0 15.0 0.00 0.00 0.00 60 1020.3
20210514230618 78 172 7.0 15.0 0.00 0.00 0.00 59 1020.3
20210514230518 78 146 8.0 15.0 0.00 0.00 0.00 59 1020.3
20210514230417 78 164 9.0 15.0 0.00 0.00 0.00 59 1020.3
20210514230317 78 178 9.0 15.0 0.00 0.00 0.00 59 1020.4
20210514230221 78 180 9.0 15.0 0.00 0.00 0.00 59 1020.3
20210514230121 78 123 9.0 15.0 0.00 0.00 0.00 60 1020.3
20210514230021 78 149 9.0 15.0 0.00 0.00 0.00 60 1020.4
20210514225922 78 180 10.0 15.0 0.00 0.00 0.00 60 1020.3
20210514225821 78 173 10.0 14.0 0.00 0.00 0.00 60 1020.4
20210514225721 78 179 10.0 14.0 0.00 0.00 0.00 60 1020.4
20210514225621 78 219 10.0 14.0 0.00 0.00 0.00 60 1020.4
20210514225525 78 158 10.0 16.0 0.00 0.00 0.00 60 1020.4
20210514225426 78 180 10.0 16.0 0.00 0.00 0.00 60 1020.3
20210514225325 78 174 9.0 16.0 0.00 0.00 0.00 60 1020.3
20210514225225 78 182 9.0 16.0 0.00 0.00 0.00 60 1020.3
20210514225124 78 153 10.0 16.0 0.00 0.00 0.00 60 1020.3
20210514225025 78 144 10.0 16.0 0.00 0.00 0.00 60 1020.4
20210514224929 78 163 10.0 19.0 0.00 0.00 0.00 60 1020.4
20210514224825 78 177 11.0 19.0 0.00 0.00 0.00 60 1020.4
20210514224725 78 154 11.0 19.0 0.00 0.00 0.00 60 1020.4
20210514224625 78 146 11.0 19.0 0.00 0.00 0.00 59 1020.4
20210514224525 78 153 10.0 19.0 0.00 0.00 0.00 59 1020.4
20210514224424 78 160 11.0 19.0 0.00 0.00 0.00 59 1020.5
20210514224324 78 184 12.0 19.0 0.00 0.00 0.00 59 1020.4
20210514224228 78 169 12.0 19.0 0.00 0.00 0.00 59 1020.5
20210514224127 78 141 12.0 19.0 0.00 0.00 0.00 59 1020.5
20210514224028 78 143 12.0 20.0 0.00 0.00 0.00 59 1020.5
20210514223928 79 150 11.0 20.0 0.00 0.00 0.00 58 1020.5
20210514223828 79 152 9.0 16.0 0.00 0.00 0.00 59 1020.5
20210514223728 79 140 8.0 16.0 0.00 0.00 0.00 59 1020.5
20210514223632 79 146 7.0 18.0 0.00 0.00 0.00 59 1020.5
20210514223532 79 72 6.0 18.0 0.00 0.00 0.00 59 1020.5
20210514223431 79 135 7.0 18.0 0.00 0.00 0.00 59 1020.5
20210514223332 79 103 8.0 18.0 0.00 0.00 0.00 58 1020.5
20210514223232 79 154 9.0 18.0 0.00 0.00 0.00 58 1020.5
20210514223132 79 146 10.0 18.0 0.00 0.00 0.00 59 1020.6
20210514223031 79 115 11.0 18.0 0.00 0.00 0.00 57 1020.6
20210514222935 79 153 12.0 18.0 0.00 0.00 0.00 57 1020.6
20210514222835 79 147 11.0 18.0 0.00 0.00 0.00 57 1020.6
20210514222734 79 150 11.0 18.0 0.00 0.00 0.00 57 1020.6
20210514222634 79 156 11.0 18.0 0.00 0.00 0.00 57 1020.7
20210514222534 79 151 10.0 18.0 0.00 0.00 0.00 57 1020.6
20210514222417 79 168 10.0 18.0 0.00 0.00 0.00 58 1020.7
20210514222320 79 150 10.0 18.0 0.00 0.00 0.00 58 1020.7
20210514222221 79 133 10.0 18.0 0.00 0.00 0.00 58 1020.7
20210514222120 79 128 11.0 20.0 0.00 0.00 0.00 58 1020.6
20210514222021 79 179 11.0 20.0 0.00 0.00 0.00 58 1020.7
20210514221921 79 155 10.0 20.0 0.00 0.00 0.00 58 1020.7
20210514221820 79 173 9.0 20.0 0.00 0.00 0.00 58 1020.8
20210514221724 79 161 9.0 17.0 0.00 0.00 0.00 58 1020.6
20210514221624 79 198 8.0 17.0 0.00 0.00 0.00 57 1020.7
20210514221522 79 214 9.0 16.0 0.00 0.00 0.00 57 1020.7
20210514221422 79 154 10.0 17.0 0.00 0.00 0.00 58 1020.6
20210514221322 79 155 10.0 16.0 0.00 0.00 0.00 58 1020.7
20210514221223 79 172 10.0 16.0 0.00 0.00 0.00 58 1020.8
20210514221124 79 155 9.0 17.0 0.00 0.00 0.00 58 1020.7
20210514221029 79 184 9.0 17.0 0.00 0.00 0.00 57 1020.8
20210514220929 79 179 9.0 17.0 0.00 0.00 0.00 58 1020.8
20210514220828 79 156 8.0 17.0 0.00 0.00 0.00 58 1020.8
20210514220728 79 182 8.0 17.0 0.00 0.00 0.00 58 1020.8
20210514220629 79 167 9.0 17.0 0.00 0.00 0.00 58 1020.8
20210514220528 79 180 11.0 17.0 0.00 0.00 0.00 58 1020.8
20210514220432 79 139 11.0 17.0 0.00 0.00 0.00 58 1020.9
20210514220333 79 118 10.0 17.0 0.00 0.00 0.00 58 1020.8
20210514220232 79 121 10.0 17.0 0.00 0.00 0.00 58 1020.9
20210514220132 79 141 10.0 17.0 0.00 0.00 0.00 57 1020.9
20210514220030 79 140 8.0 18.0 0.00 0.00 0.00 59 1020.8
20210514215929 79 113 8.0 21.0 0.00 0.00 0.00 59 1020.9
20210514215829 78 127 8.0 21.0 0.00 0.00 0.00 59 1020.9
20210514215732 78 136 9.0 21.0 0.00 0.00 0.00 59 1020.9
20210514215632 78 142 10.0 21.0 0.00 0.00 0.00 59 1020.9
20210514215532 78 148 10.0 21.0 0.00 0.00 0.00 59 1020.9
20210514215434 78 138 10.0 21.0 0.00 0.00 0.00 59 1020.9
20210514215334 78 159 9.0 21.0 0.00 0.00 0.00 59 1021.0
20210514215233 79 145 8.0 21.0 0.00 0.00 0.00 59 1021.0
20210514215116 78 133 9.0 21.0 0.00 0.00 0.00 60 1020.9
20210514215017 78 156 9.0 21.0 0.00 0.00 0.00 60 1021.0
20210514214919 78 132 10.0 21.0 0.00 0.00 0.00 59 1021.0
20210514214818 78 171 11.0 20.0 0.00 0.00 0.00 59 1021.0
20210514214718 78 159 12.0 20.0 0.00 0.00 0.00 59 1021.0
20210514214618 78 157 11.0 20.0 0.00 0.00 0.00 59 1021.0
20210514214523 78 133 11.0 17.0 0.00 0.00 0.00 59 1021.0
20210514214422 78 148 10.0 17.0 0.00 0.00 0.00 59 1021.0
20210514214322 78 157 9.0 16.0 0.00 0.00 0.00 59 1021.0
20210514214222 78 153 9.0 14.0 0.00 0.00 0.00 59 1021.0
20210514214120 78 136 8.0 14.0 0.00 0.00 0.00 59 1021.0
20210514214019 78 140 8.0 14.0 0.00 0.00 0.00 59 1021.0
20210514213919 78 155 7.0 14.0 0.00 0.00 0.00 58 1021.0
20210514213823 79 109 7.0 14.0 0.00 0.00 0.00 58 1021.0
20210514213722 79 102 7.0 14.0 0.00 0.00 0.00 58 1021.0
20210514213622 79 129 6.0 14.0 0.00 0.00 0.00 59 1021.0
20210514213522 79 148 7.0 14.0 0.00 0.00 0.00 59 1021.0
20210514213420 79 115 7.0 13.0 0.00 0.00 0.00 59 1021.0
20210514213320 79 185 7.0 13.0 0.00 0.00 0.00 59 1021.0
20210514213224 79 125 6.0 13.0 0.00 0.00 0.00 59 1021.0
20210514213123 79 126 7.0 13.0 0.00 0.00 0.00 58 1021.0
20210514213021 79 102 7.0 12.0 0.00 0.00 0.00 58 1021.0
20210514212923 79 107 7.0 12.0 0.00 0.00 0.00 58 1021.1
20210514212823 79 137 7.0 12.0 0.00 0.00 0.00 58 1021.1
20210514212723 79 143 7.0 14.0 0.00 0.00 0.00 57 1021.0
20210514212623 79 146 7.0 14.0 0.00 0.00 0.00 57 1021.2
20210514212527 79 178 7.0 14.0 0.00 0.00 0.00 58 1021.1
20210514212428 79 146 8.0 17.0 0.00 0.00 0.00 58 1021.1
20210514212328 79 114 8.0 17.0 0.00 0.00 0.00 58 1021.1
20210514212228 79 119 8.0 17.0 0.00 0.00 0.00 58 1021.1
20210514212128 79 102 9.0 17.0 0.00 0.00 0.00 58 1021.1
20210514212029 79 171 9.0 17.0 0.00 0.00 0.00 58 1021.1
20210514211933 79 143 10.0 17.0 0.00 0.00 0.00 58 1021.2
20210514211834 79 131 10.0 17.0 0.00 0.00 0.00 58 1021.2
20210514211733 79 111 10.0 19.0 0.00 0.00 0.00 57 1021.2
20210514211634 79 165 9.0 19.0 0.00 0.00 0.00 57 1021.2
20210514211533 79 166 8.0 19.0 0.00 0.00 0.00 57 1021.2
20210514211433 80 167 7.0 16.0 0.00 0.00 0.00 57 1021.2
20210514211317 80 163 6.0 14.0 0.00 0.00 0.00 57 1021.2
20210514211217 80 151 6.0 14.0 0.00 0.00 0.00 57 1021.3
20210514211117 80 126 7.0 14.0 0.00 0.00 0.00 56 1021.2
20210514211017 80 149 8.0 14.0 0.00 0.00 0.00 56 1021.3
20210514210917 80 144 7.0 14.0 0.00 0.00 0.00 55 1021.3
20210514210816 80 155 8.0 13.0 0.00 0.00 0.00 56 1021.2
20210514210716 80 147 8.0 13.0 0.00 0.00 0.00 56 1021.3
20210514210621 80 127 8.0 13.0 0.00 0.00 0.00 56 1021.3
20210514210520 80 163 8.0 13.0 0.00 0.00 0.00 56 1021.3
20210514210420 80 124 8.0 13.0 0.00 0.00 0.00 56 1021.3
20210514210320 80 100 7.0 13.0 0.00 0.00 0.00 56 1021.3
20210514210220 80 96 7.0 13.0 0.00 0.00 0.00 56 1021.3
20210514210119 80 103 7.0 15.0 0.00 0.00 0.00 56 1021.4
20210514210024 80 120 7.0 15.0 0.00 0.00 0.00 56 1021.3
20210514205924 80 128 6.0 15.0 0.00 0.00 0.00 57 1021.5
20210514205823 80 140 6.0 15.0 0.00 0.00 0.00 57 1021.5
20210514205723 80 166 8.0 15.0 0.00 0.00 0.00 57 1021.5
20210514205622 80 140 7.0 15.0 0.00 0.00 0.00 56 1021.5
20210514205523 80 147 8.0 15.0 0.00 0.00 0.00 56 1021.5
20210514205423 80 158 8.0 15.0 0.00 0.00 0.00 56 1021.5
20210514205326 80 157 7.0 15.0 0.00 0.00 0.00 57 1021.5
20210514205226 80 159 7.0 15.0 0.00 0.00 0.00 56 1021.4
20210514205126 80 151 8.0 16.0 0.00 0.00 0.00 56 1021.6
20210514205025 80 189 8.0 16.0 0.00 0.00 0.00 56 1021.5
20210514204925 80 186 8.0 15.0 0.00 0.00 0.00 56 1021.5
20210514204825 79 158 8.0 15.0 0.00 0.00 0.00 56 1021.5
20210514204729 79 159 8.0 15.0 0.00 0.00 0.00 56 1021.5
20210514204630 79 173 8.0 15.0 0.00 0.00 0.00 56 1021.6
20210514204529 79 139 8.0 15.0 0.00 0.00 0.00 56 1021.6
20210514204429 79 155 8.0 14.0 0.00 0.00 0.00 55 1021.7
20210514204329 79 123 8.0 16.0 0.00 0.00 0.00 55 1021.6
20210514204228 79 168 8.0 19.0 0.00 0.00 0.00 55 1021.7
20210514204127 79 169 9.0 19.0 0.00 0.00 0.00 56 1021.7
20210514204031 79 165 10.0 19.0 0.00 0.00 0.00 56 1021.7
20210514203932 79 158 10.0 19.0 0.00 0.00 0.00 57 1021.8
20210514203832 79 148 10.0 19.0 0.00 0.00 0.00 56 1021.7
20210514203732 79 164 9.0 19.0 0.00 0.00 0.00 56 1021.7
20210514203632 79 169 9.0 19.0 0.00 0.00 0.00 57 1021.7
20210514203532 79 165 11.0 19.0 0.00 0.00 0.00 56 1021.7
20210514203435 79 157 11.0 19.0 0.00 0.00 0.00 56 1021.7
20210514203335 80 143 12.0 19.0 0.00 0.00 0.00 56 1021.7
20210514203235 80 194 11.0 18.0 0.00 0.00 0.00 56 1021.8
20210514203135 80 154 9.0 13.0 0.00 0.00 0.00 57 1021.7
20210514203036 80 187 8.0 13.0 0.00 0.00 0.00 56 1021.8
20210514202935 80 144 8.0 12.0 0.00 0.00 0.00 56 1021.9
20210514202818 80 180 6.0 11.0 0.00 0.00 0.00 56 1021.9
20210514202718 80 145 5.0 11.0 0.00 0.00 0.00 56 1021.8
20210514202618 80 185 5.0 16.0 0.00 0.00 0.00 56 1021.9
20210514202517 80 190 5.0 16.0 0.00 0.00 0.00 57 1021.9
20210514202418 80 181 6.0 16.0 0.00 0.00 0.00 56 1021.9
20210514202317 79 161 7.0 16.0 0.00 0.00 0.00 56 1022.0
20210514202216 79 150 7.0 16.0 0.00 0.00 0.00 56 1021.9
20210514202121 79 169 8.0 16.0 0.00 0.00 0.00 56 1021.9
20210514202021 79 117 9.0 16.0 0.00 0.00 0.00 56 1022.0
20210514201920 79 163 10.0 16.0 0.00 0.00 0.00 56 1022.0
20210514201820 79 119 11.0 16.0 0.00 0.00 0.00 56 1022.0
20210514201720 79 148 10.0 18.0 0.00 0.00 0.00 56 1022.0
20210514201619 80 165 9.0 18.0 0.00 0.00 0.00 56 1022.1
20210514201523 80 160 9.0 18.0 0.00 0.00 0.00 56 1022.1
20210514201423 80 155 9.0 18.0 0.00 0.00 0.00 56 1022.0
20210514201322 80 115 9.0 18.0 0.00 0.00 0.00 56 1022.1
20210514201222 80 115 10.0 18.0 0.00 0.00 0.00 56 1022.0
20210514201121 80 152 11.0 18.0 0.00 0.00 0.00 56 1022.1
20210514201021 80 161 11.0 18.0 0.00 0.00 0.00 56 1022.0
20210514200921 80 182 9.0 18.0 0.00 0.00 0.00 55 1022.2
20210514200825 80 130 7.0 15.0 0.00 0.00 0.00 55 1022.1
20210514200724 80 96 5.0 15.0 0.00 0.00 0.00 55 1022.1
20210514200623 80 99 3.0 15.0 0.00 0.00 0.00 56 1022.1
20210514200523 80 108 4.0 15.0 0.00 0.00 0.00 56 1022.1
20210514200424 80 147 5.0 16.0 0.00 0.00 0.00 56 1022.1
20210514200324 79 164 7.0 15.0 0.00 0.00 0.00 56 1022.2
20210514200228 79 164 8.0 15.0 0.00 0.00 0.00 56 1022.3
20210514200128 79 167 9.0 15.0 0.00 0.00 0.00 56 1022.2
20210514200028 79 161 10.0 15.0 0.00 0.00 0.00 56 1022.3
20210514195927 79 145 10.0 15.0 0.00 0.00 0.00 57 1022.2
20210514195826 79 156 10.0 15.0 0.00 0.00 0.00 57 1022.3
20210514195726 79 151 10.0 15.0 0.00 0.00 0.00 56 1022.3
20210514195626 79 150 9.0 16.0 0.00 0.00 0.00 56 1022.3
20210514195530 79 164 7.0 14.0 0.00 0.00 0.00 56 1022.3
20210514195431 79 166 6.0 14.0 0.00 0.00 0.00 56 1022.3
20210514195330 79 138 5.0 13.0 0.00 0.00 0.00 57 1022.3
20210514195230 79 197 7.0 13.0 0.00 0.00 0.00 56 1022.4
20210514195129 79 214 7.0 13.0 0.00 0.00 0.00 57 1022.3
20210514195029 79 215 9.0 16.0 0.00 0.00 0.00 57 1022.3
20210514194934 80 176 9.0 16.0 0.00 0.00 0.00 57 1022.4
20210514194833 80 154 9.0 16.0 0.00 0.00 0.00 57 1022.3
20210514194733 80 167 8.0 16.0 0.00 0.00 0.00 57 1022.4
20210514194633 80 148 7.0 16.0 0.00 0.00 0.00 56 1022.4
20210514194531 80 145 7.0 16.0 0.00 0.00 0.00 56 1022.4
20210514194430 80 113 5.0 16.0 0.00 0.00 0.00 56 1022.4
20210514194331 79 119 5.0 16.0 0.00 0.00 0.00 56 1022.5
20210514194235 79 173 6.0 16.0 0.00 0.00 0.00 56 1022.4
20210514194134 79 169 7.0 17.0 0.00 0.00 0.00 56 1022.5
20210514194034 79 112 8.0 17.0 0.00 0.00 0.00 56 1022.4
20210514193934 79 134 8.0 17.0 0.00 0.00 0.00 57 1022.5
20210514193833 79 121 8.0 17.0 0.00 0.00 0.00 56 1022.5
20210514193733 79 115 7.0 17.0 0.00 0.00 0.00 57 1022.5
20210514193617 79 130 7.0 17.0 0.00 0.00 0.00 58 1022.3
20210514193517 79 112 7.0 17.0 0.00 0.00 0.00 58 1022.3
20210514193416 79 77 8.0 17.0 0.00 0.00 0.00 57 1022.4
20210514193316 78 136 8.0 17.0 0.00 0.00 0.00 57 1022.5
20210514193236 78 147 9.0 17.0 0.00 0.00 0.00 57 1022.4
20210514193132 78 163 9.0 17.0 0.00 0.00 0.00 57 1022.5
20210514193031 78 118 7.0 17.0 0.00 0.00 0.00 58 1022.4
20210514192935 78 132 7.0 13.0 0.00 0.00 0.00 58 1022.4
20210514192834 78 81 7.0 14.0 0.00 0.00 0.00 57 1022.4
20210514192734 78 71 8.0 14.0 0.00 0.00 0.00 57 1022.5
20210514192634 79 74 8.0 14.0 0.00 0.00 0.00 57 1022.5
20210514192533 79 96 7.0 14.0 0.00 0.00 0.00 57 1022.5
20210514192435 79 90 8.0 15.0 0.00 0.00 0.00 56 1022.5
20210514192317 79 56 8.0 15.0 0.00 0.00 0.00 56 1022.5
20210514192217 79 73 8.0 15.0 0.00 0.00 0.00 56 1022.5
20210514192117 79 128 9.0 15.0 0.00 0.00 0.00 56 1022.6
20210514192018 79 134 9.0 15.0 0.00 0.00 0.00 56 1022.5
20210514191917 79 98 9.0 15.0 0.00 0.00 0.00 57 1022.7
20210514191835 79 76 10.0 15.0 0.00 0.00 0.00 57 1022.7
20210514191719 79 167 8.0 15.0 0.00 0.00 0.00 57 1022.6
20210514191618 79 156 7.0 15.0 0.00 0.00 0.00 57 1022.7
20210514191516 79 80 5.0 14.0 0.00 0.00 0.00 57 1022.7
20210514191416 79 138 5.0 11.0 0.00 0.00 0.00 57 1022.7
20210514191336 79 175 5.0 11.0 0.00 0.00 0.00 56 1022.8
20210514191216 79 134 6.0 11.0 0.00 0.00 0.00 58 1022.7
20210514191116 79 155 6.0 11.0 0.00 0.00 0.00 58 1022.8
20210514191020 79 135 6.0 17.0 0.00 0.00 0.00 58 1022.7
20210514190919 78 95 6.0 17.0 0.00 0.00 0.00 58 1022.8
20210514190819 78 41 6.0 17.0 0.00 0.00 0.00 58 1022.8
20210514190719 78 178 5.0 17.0 0.00 0.00 0.00 58 1022.8
20210514190618 78 167 4.0 17.0 0.00 0.00 0.00 58 1022.9
20210514190518 78 163 5.0 17.0 0.00 0.00 0.00 57 1022.9
20210514190422 78 199 8.0 17.0 0.00 0.00 0.00 57 1022.9
20210514190322 78 160 9.0 17.0 0.00 0.00 0.00 57 1022.8
20210514190221 78 124 11.0 17.0 0.00 0.00 0.00 58 1022.9
20210514190121 78 169 11.0 17.0 0.00 0.00 0.00 57 1022.9
20210514190021 78 163 9.0 17.0 0.00 0.00 0.00 56 1023.0
20210514185921 78 179 7.0 14.0 0.00 0.00 0.00 57 1022.9
20210514185820 79 180 5.0 15.0 0.00 0.00 0.00 57 1023.0
20210514185724 78 176 5.0 15.0 0.00 0.00 0.00 57 1022.8
20210514185624 78 114 6.0 15.0 0.00 0.00 0.00 57 1022.9
20210514185524 78 116 5.0 15.0 0.00 0.00 0.00 57 1022.9
20210514185424 78 142 6.0 15.0 0.00 0.00 0.00 57 1022.9
20210514185322 78 142 8.0 15.0 0.00 0.00 0.00 56 1023.0
20210514185222 78 136 8.0 15.0 0.00 0.00 0.00 56 1023.0
20210514185125 78 117 9.0 15.0 0.00 0.00 0.00 55 1023.1
20210514185025 78 142 9.0 15.0 0.00 0.00 0.00 55 1023.2
20210514184925 79 180 9.0 15.0 0.00 0.00 0.00 55 1023.1
20210514184824 79 177 8.0 15.0 0.00 0.00 0.00 55 1023.1
20210514184724 79 178 8.0 17.0 0.00 0.00 0.00 55 1023.1
20210514184625 79 161 8.0 17.0 0.00 0.00 0.00 55 1023.1
20210514184525 79 156 6.0 17.0 0.00 0.00 0.00 56 1023.2
20210514184428 79 179 5.0 17.0 0.00 0.00 0.00 56 1023.2
20210514184328 79 140 4.0 12.0 0.00 0.00 0.00 55 1023.2
20210514184228 79 196 4.0 12.0 0.00 0.00 0.00 57 1023.2
20210514184128 79 175 4.0 12.0 0.00 0.00 0.00 57 1023.3
20210514184027 79 160 4.0 12.0 0.00 0.00 0.00 57 1023.1
20210514183928 78 230 5.0 12.0 0.00 0.00 0.00 58 1023.2
20210514183831 78 222 6.0 12.0 0.00 0.00 0.00 58 1023.2
20210514183731 78 196 8.0 12.0 0.00 0.00 0.00 57 1023.2
20210514183630 77 164 8.0 12.0 0.00 0.00 0.00 57 1023.3
20210514183530 77 163 8.0 11.0 0.00 0.00 0.00 57 1023.3
20210514183432 78 167 7.0 11.0 0.00 0.00 0.00 57 1023.2
20210514183332 78 133 7.0 11.0 0.00 0.00 0.00 57 1023.3
20210514183215 78 165 6.0 11.0 0.00 0.00 0.00 57 1023.3
20210514183116 78 204 6.0 14.0 0.00 0.00 0.00 57 1023.3
20210514183016 78 175 6.0 14.0 0.00 0.00 0.00 56 1023.4
20210514182916 78 188 6.0 14.0 0.00 0.00 0.00 56 1023.3
20210514182816 79 193 7.0 14.0 0.00 0.00 0.00 56 1023.3
20210514182735 78 168 7.0 14.0 0.00 0.00 0.00 56 1023.3
20210514182635 78 128 7.0 14.0 0.00 0.00 0.00 56 1023.3
20210514182519 78 153 8.0 14.0 0.00 0.00 0.00 56 1023.3
20210514182420 78 128 8.0 14.0 0.00 0.00 0.00 56 1023.3
20210514182319 78 134 8.0 13.0 0.00 0.00 0.00 55 1023.3
20210514182219 79 172 8.0 16.0 0.00 0.00 0.00 55 1023.3
20210514182118 79 146 8.0 16.0 0.00 0.00 0.00 56 1023.4
20210514182019 79 160 8.0 16.0 0.00 0.00 0.00 56 1023.4
20210514181923 79 142 8.0 16.0 0.00 0.00 0.00 56 1023.3
20210514181823 78 156 7.0 16.0 0.00 0.00 0.00 56 1023.4
20210514181723 78 78 7.0 16.0 0.00 0.00 0.00 57 1023.5
20210514181622 78 161 6.0 16.0 0.00 0.00 0.00 60 1023.4
20210514181522 78 164 6.0 16.0 0.00 0.00 0.00 60 1023.4
20210514181422 79 150 5.0 16.0 0.00 0.00 0.00 60 1023.4
20210514181321 79 146 4.0 15.0 0.00 0.00 0.00 60 1023.4
20210514181223 79 171 3.0 15.0 0.00 0.00 0.00 60 1023.4
20210514181124 78 168 3.0 15.0 0.00 0.00 0.00 60 1023.4
20210514181024 78 161 4.0 15.0 0.00 0.00 0.00 57 1023.4
20210514180923 78 159 5.0 15.0 0.00 0.00 0.00 58 1023.4
20210514180823 78 103 7.0 15.0 0.00 0.00 0.00 57 1023.5
20210514180723 78 132 6.0 15.0 0.00 0.00 0.00 57 1023.6
20210514180627 78 152 6.0 15.0 0.00 0.00 0.00 57 1023.5
20210514180527 78 161 5.0 15.0 0.00 0.00 0.00 56 1023.6
20210514180426 78 184 3.0 13.0 0.00 0.00 0.00 57 1023.6
20210514180327 78 188 2.0 13.0 0.00 0.00 0.00 58 1023.6
20210514180227 78 186 3.0 13.0 0.00 0.00 0.00 58 1023.6
20210514180127 77 186 4.0 13.0 0.00 0.00 0.00 58 1023.6
20210514180026 77 186 6.0 20.0 0.00 0.00 0.00 58 1023.6
20210514175930 77 185 8.0 20.0 0.00 0.00 0.00 58 1023.7
20210514175830 77 175 9.0 20.0 0.00 0.00 0.00 58 1023.7
20210514175728 77 172 10.0 20.0 0.00 0.00 0.00 58 1023.7
20210514175628 77 153 10.0 20.0 0.00 0.00 0.00 58 1023.7
20210514175528 77 167 11.0 20.0 0.00 0.00 0.00 57 1023.7
20210514175429 77 139 12.0 20.0 0.00 0.00 0.00 57 1023.7
20210514175331 77 164 11.0 18.0 0.00 0.00 0.00 57 1023.8
20210514175231 77 169 10.0 18.0 0.00 0.00 0.00 58 1023.8
20210514175131 77 173 8.0 17.0 0.00 0.00 0.00 58 1023.7
20210514175030 77 109 7.0 16.0 0.00 0.00 0.00 58 1023.7
20210514174930 77 91 7.0 16.0 0.00 0.00 0.00 56 1023.7
20210514174832 78 144 7.0 16.0 0.00 0.00 0.00 56 1023.7
20210514174717 78 134 7.0 16.0 0.00 0.00 0.00 57 1023.7